Darstellungsparameter: Aktuell verwendete Einstellungen:
Skalierung der Graphiken ... ?
xyx+y,   Skalierungsfaktor:      Skalierung: Modus: x, Faktor: 1
Darstellungszeitraum ... ?
Vom - - bis: - -   Zeitraum: 22.08.2019 - 28.08.2019
Min/Max/Avg-Anzeige ... ?
Zeige MMA aktuell
Zeige MMA Monat
Zeige MMA alles
Zeige --A aktuell
Zeige --A Monat
Zeige --A alles
Keine MMA-Anzeige
MMA:
Keine MMA-Graphiken
MMA-Basis: 22.08.2019 - 28.08.2019
Quicknavigation für Darstellung... ?
Tage:      1T, 2T, 3T, 5T -1T -2T -3T -5T +1T +2T +3T +5T
Wochen: 1W, 2W, 3W -1W -2W -3W +1W +2W +3W
Monate: 1M, 3M, 6M -1M -3M -6M +1M +3M +6M
Jahre:    1J, 3J, 5J, 10J -1J -3J -5J -10J +1J +3J +5J +10J
Nutze für die Darstellung ... ?
Originaldaten oder Mittelwerte auf ...
Stundenbasis Tagesbasis Wochenbasis
Monatsbasis Jahresbasis      Datenbasis: Original-Daten
Darstellen als:
Statistik (Auto) Statistik J:M      Darstellung:
Zur Graphik,    zurück zur Übersicht aller Sensoren.
 
Tabellarische Datenbersicht: ?
 
Sensor: Nr:Datum:Temp:Feuchte:Taupunkt:
Aussen-T/F 1 22-08-2019 00:00:00 14 C 82 % 10.98 C
2 22-08-2019 00:05:00 13.9 C 82 % 10.88 C
3 22-08-2019 00:10:00 13.9 C 82 % 10.88 C
4 22-08-2019 00:15:00 13.8 C 83 % 10.97 C
5 22-08-2019 00:20:00 13.6 C 83 % 10.77 C
6 22-08-2019 00:25:00 13.5 C 83 % 10.67 C
7 22-08-2019 00:30:00 13.4 C 84 % 10.75 C
8 22-08-2019 00:35:00 13.3 C 84 % 10.66 C
9 22-08-2019 00:40:00 13.2 C 84 % 10.56 C
10 22-08-2019 00:45:00 13.1 C 85 % 10.64 C
11 22-08-2019 00:50:00 13.1 C 85 % 10.64 C
12 22-08-2019 00:55:00 12.9 C 85 % 10.44 C
13 22-08-2019 01:00:00 12.8 C 85 % 10.34 C
14 22-08-2019 01:05:00 12.8 C 85 % 10.34 C
15 22-08-2019 01:10:00 12.7 C 85 % 10.25 C
16 22-08-2019 01:15:00 12.6 C 85 % 10.15 C
17 22-08-2019 01:20:00 12.5 C 86 % 10.22 C
18 22-08-2019 01:25:00 12.4 C 86 % 10.13 C
19 22-08-2019 01:30:00 12.3 C 86 % 10.03 C
20 22-08-2019 01:35:00 12.3 C 86 % 10.03 C
21 22-08-2019 01:40:00 12.2 C 87 % 10.1 C
22 22-08-2019 01:45:00 12.2 C 87 % 10.1 C
23 22-08-2019 01:50:00 12.1 C 87 % 10 C
24 22-08-2019 01:55:00 12.1 C 87 % 10 C
25 22-08-2019 02:00:00 12 C 88 % 10.08 C
Sensor: Nr:Datum:Temp:Feuchte:Taupunkt:
Aussen-T/F 26 22-08-2019 02:05:00 11.9 C 88 % 9.98 C
27 22-08-2019 02:10:00 11.9 C 88 % 9.98 C
28 22-08-2019 02:15:00 11.8 C 88 % 9.88 C
29 22-08-2019 02:20:00 11.8 C 88 % 9.88 C
30 22-08-2019 02:25:00 11.7 C 88 % 9.78 C
31 22-08-2019 02:30:00 11.6 C 89 % 9.85 C
32 22-08-2019 02:35:00 11.6 C 89 % 9.85 C
33 22-08-2019 02:40:00 11.5 C 89 % 9.75 C
34 22-08-2019 02:45:00 11.4 C 89 % 9.65 C
35 22-08-2019 02:50:00 11.4 C 89 % 9.65 C
36 22-08-2019 02:55:00 11.4 C 90 % 9.82 C
37 22-08-2019 03:00:00 11.3 C 90 % 9.72 C
38 22-08-2019 03:05:00 11.3 C 90 % 9.72 C
39 22-08-2019 03:10:00 11.2 C 90 % 9.62 C
40 22-08-2019 03:15:00 11.2 C 91 % 9.79 C
41 22-08-2019 03:20:00 11.3 C 91 % 9.89 C
42 22-08-2019 03:25:00 11.2 C 91 % 9.79 C
43 22-08-2019 03:30:00 11.2 C 90 % 9.62 C
44 22-08-2019 03:35:00 11.1 C 90 % 9.52 C
45 22-08-2019 03:40:00 11 C 90 % 9.42 C
46 22-08-2019 03:45:00 10.9 C 90 % 9.33 C
47 22-08-2019 03:50:00 10.9 C 91 % 9.49 C
48 22-08-2019 03:55:00 10.9 C 91 % 9.49 C
49 22-08-2019 04:00:00 10.8 C 91 % 9.39 C
50 22-08-2019 04:05:00 10.7 C 91 % 9.29 C
Sensor: Nr:Datum:Temp:Feuchte:Taupunkt:
Aussen-T/F 51 22-08-2019 04:10:00 10.7 C 91 % 9.29 C
52 22-08-2019 04:15:00 10.6 C 91 % 9.19 C
53 22-08-2019 04:20:00 10.6 C 92 % 9.36 C
54 22-08-2019 04:25:00 10.6 C 92 % 9.36 C
55 22-08-2019 04:30:00 10.6 C 92 % 9.36 C
56 22-08-2019 04:35:00 10.6 C 92 % 9.36 C
57 22-08-2019 04:40:00 10.5 C 92 % 9.26 C
58 22-08-2019 04:45:00 10.4 C 92 % 9.16 C
59 22-08-2019 04:50:00 10.3 C 92 % 9.06 C
60 22-08-2019 04:55:00 10.3 C 92 % 9.06 C
61 22-08-2019 05:00:00 10.2 C 92 % 8.96 C
62 22-08-2019 05:05:00 10.2 C 92 % 8.96 C
63 22-08-2019 05:10:00 10.2 C 92 % 8.96 C
64 22-08-2019 05:15:00 10.1 C 92 % 8.86 C
65 22-08-2019 05:20:00 10.1 C 93 % 9.02 C
66 22-08-2019 05:25:00 10.1 C 93 % 9.02 C
67 22-08-2019 05:30:00 9.9 C 93 % 8.82 C
68 22-08-2019 05:35:00 9.9 C 93 % 8.82 C
69 22-08-2019 05:40:00 9.8 C 93 % 8.72 C
70 22-08-2019 05:45:00 9.8 C 93 % 8.72 C
71 22-08-2019 05:50:00 9.8 C 93 % 8.72 C
72 22-08-2019 05:55:00 9.8 C 93 % 8.72 C
73 22-08-2019 06:00:00 9.7 C 93 % 8.62 C
74 22-08-2019 06:05:00 9.7 C 93 % 8.62 C
75 22-08-2019 06:10:00 9.7 C 93 % 8.62 C
Sensor: Nr:Datum:Temp:Feuchte:Taupunkt:
Aussen-T/F 76 22-08-2019 06:15:00 9.7 C 94 % 8.78 C
77 22-08-2019 06:20:00 9.7 C 94 % 8.78 C
78 22-08-2019 06:25:00 9.7 C 94 % 8.78 C
79 22-08-2019 06:30:00 9.7 C 94 % 8.78 C
80 22-08-2019 06:35:00 9.7 C 94 % 8.78 C
81 22-08-2019 06:40:00 9.7 C 94 % 8.78 C
82 22-08-2019 06:45:00 9.8 C 94 % 8.88 C
83 22-08-2019 06:50:00 9.8 C 94 % 8.88 C
84 22-08-2019 06:55:00 9.7 C 94 % 8.78 C
85 22-08-2019 07:00:00 9.7 C 94 % 8.78 C
86 22-08-2019 07:05:00 9.6 C 94 % 8.68 C
87 22-08-2019 07:10:00 9.6 C 94 % 8.68 C
88 22-08-2019 07:15:00 9.6 C 94 % 8.68 C
89 22-08-2019 07:20:00 9.7 C 95 % 8.94 C
90 22-08-2019 07:25:00 9.7 C 95 % 8.94 C
91 22-08-2019 07:30:00 9.7 C 95 % 8.94 C
92 22-08-2019 07:35:00 9.7 C 95 % 8.94 C
93 22-08-2019 07:40:00 9.7 C 95 % 8.94 C
94 22-08-2019 07:45:00 9.8 C 95 % 9.04 C
95 22-08-2019 07:50:00 9.8 C 95 % 9.04 C
96 22-08-2019 07:55:00 9.8 C 95 % 9.04 C
97 22-08-2019 08:00:00 9.9 C 95 % 9.14 C
98 22-08-2019 08:05:00 9.9 C 95 % 9.14 C
99 22-08-2019 08:10:00 10 C 95 % 9.24 C
100 22-08-2019 08:15:00 10.1 C 95 % 9.34 C
Sensor: Nr:Datum:Temp:Feuchte:Taupunkt:
Aussen-T/F 101 22-08-2019 08:20:00 10.2 C 95 % 9.44 C
102 22-08-2019 08:25:00 10.3 C 95 % 9.54 C
103 22-08-2019 08:30:00 10.3 C 95 % 9.54 C
104 22-08-2019 08:35:00 10.4 C 95 % 9.63 C
105 22-08-2019 08:40:00 10.5 C 96 % 9.89 C
106 22-08-2019 08:45:00 10.6 C 96 % 9.99 C
107 22-08-2019 08:50:00 10.7 C 96 % 10.09 C
108 22-08-2019 08:55:00 10.8 C 96 % 10.19 C
109 22-08-2019 09:00:00 10.9 C 96 % 10.29 C
110 22-08-2019 09:05:00 11 C 96 % 10.39 C
111 22-08-2019 09:10:00 11.1 C 96 % 10.49 C
112 22-08-2019 09:15:00 11.2 C 96 % 10.59 C
113 22-08-2019 09:20:00 11.3 C 96 % 10.69 C
114 22-08-2019 09:25:00 11.4 C 96 % 10.79 C
115 22-08-2019 09:30:00 11.6 C 96 % 10.98 C
116 22-08-2019 09:35:00 11.7 C 96 % 11.08 C
117 22-08-2019 09:40:00 11.8 C 96 % 11.18 C
118 22-08-2019 09:45:00 11.9 C 96 % 11.28 C
119 22-08-2019 09:50:00 12.1 C 96 % 11.48 C
120 22-08-2019 09:55:00 12.3 C 96 % 11.68 C
121 22-08-2019 10:00:00 12.4 C 96 % 11.78 C
122 22-08-2019 10:05:00 12.7 C 96 % 12.08 C
123 22-08-2019 10:10:00 12.8 C 96 % 12.18 C
124 22-08-2019 10:15:00 13 C 96 % 12.38 C
125 22-08-2019 10:20:00 13.2 C 96 % 12.58 C
Sensor: Nr:Datum:Temp:Feuchte:Taupunkt:
Aussen-T/F 126 22-08-2019 10:25:00 13.3 C 95 % 12.52 C
127 22-08-2019 10:30:00 13.6 C 95 % 12.81 C
128 22-08-2019 10:35:00 13.7 C 94 % 12.75 C
129 22-08-2019 10:40:00 13.9 C 94 % 12.95 C
130 22-08-2019 10:45:00 14.2 C 93 % 13.08 C
131 22-08-2019 10:50:00 14.6 C 92 % 13.32 C
132 22-08-2019 10:55:00 14.8 C 92 % 13.51 C
133 22-08-2019 11:00:00 15.2 C 90 % 13.57 C
134 22-08-2019 11:05:00 15.5 C 88 % 13.52 C
135 22-08-2019 11:10:00 15.9 C 88 % 13.92 C
136 22-08-2019 11:15:00 16.2 C 86 % 13.86 C
137 22-08-2019 11:20:00 16.4 C 86 % 14.05 C
138 22-08-2019 11:25:00 16.8 C 82 % 13.71 C
139 22-08-2019 11:30:00 17.2 C 79 % 13.53 C
140 22-08-2019 11:35:00 17.5 C 79 % 13.82 C
141 22-08-2019 11:40:00 17.8 C 79 % 14.11 C
142 22-08-2019 11:45:00 18 C 78 % 14.11 C
143 22-08-2019 11:50:00 18.2 C 77 % 14.1 C
144 22-08-2019 11:55:00 18.4 C 77 % 14.3 C
145 22-08-2019 12:00:00 18.7 C 77 % 14.59 C
146 22-08-2019 12:05:00 18.8 C 76 % 14.48 C
147 22-08-2019 12:10:00 19.1 C 77 % 14.97 C
148 22-08-2019 12:15:00 19.2 C 72 % 14.03 C
149 22-08-2019 12:20:00 19.4 C 67 % 13.12 C
150 22-08-2019 12:25:00 19.9 C 62 % 12.41 C
Sensor: Nr:Datum:Temp:Feuchte:Taupunkt:
Aussen-T/F 151 22-08-2019 12:30:00 20.4 C 66 % 13.84 C
152 22-08-2019 12:35:00 20.7 C 61 % 12.91 C
153 22-08-2019 12:40:00 21 C 59 % 12.69 C
154 22-08-2019 12:45:00 21.2 C 58 % 12.61 C
155 22-08-2019 12:50:00 21.4 C 58 % 12.8 C
156 22-08-2019 12:55:00 21.6 C 57 % 12.72 C
157 22-08-2019 13:00:00 21.8 C 58 % 13.17 C
158 22-08-2019 13:05:00 22.2 C 55 % 12.73 C
159 22-08-2019 13:10:00 22.3 C 54 % 12.55 C
160 22-08-2019 13:15:00 22.4 C 54 % 12.64 C
161 22-08-2019 13:20:00 22.6 C 53 % 12.54 C
162 22-08-2019 13:25:00 22.7 C 54 % 12.92 C
163 22-08-2019 13:30:00 22.8 C 53 % 12.73 C
164 22-08-2019 13:35:00 22.9 C 55 % 13.38 C
165 22-08-2019 13:40:00 22.9 C 53 % 12.82 C
166 22-08-2019 13:45:00 23.2 C 53 % 13.09 C
167 22-08-2019 13:50:00 23.3 C 52 % 12.9 C
168 22-08-2019 13:55:00 23.5 C 52 % 13.08 C
169 22-08-2019 14:00:00 23.6 C 51 % 12.88 C
170 22-08-2019 14:05:00 23.7 C 51 % 12.97 C
171 22-08-2019 14:10:00 23.7 C 49 % 12.36 C
172 22-08-2019 14:15:00 23.8 C 53 % 13.65 C
173 22-08-2019 14:20:00 23.9 C 50 % 12.85 C
174 22-08-2019 14:25:00 24 C 48 % 12.32 C
175 22-08-2019 14:30:00 24.1 C 46 % 11.76 C
Sensor: Nr:Datum:Temp:Feuchte:Taupunkt:
Aussen-T/F 176 22-08-2019 14:35:00 24.1 C 46 % 11.76 C
177 22-08-2019 14:40:00 24.2 C 48 % 12.5 C
178 22-08-2019 14:45:00 24.4 C 46 % 12.04 C
179 22-08-2019 14:50:00 24.7 C 44 % 11.63 C
180 22-08-2019 14:55:00 24.8 C 44 % 11.72 C
181 22-08-2019 15:00:00 24.9 C 44 % 11.81 C
182 22-08-2019 15:05:00 25.2 C 43 % 11.74 C
183 22-08-2019 15:10:00 25.5 C 41 % 11.29 C
184 22-08-2019 15:15:00 25.7 C 41 % 11.47 C
185 22-08-2019 15:20:00 25.9 C 40 % 11.27 C
186 22-08-2019 15:25:00 26.2 C 44 % 12.99 C
187 22-08-2019 15:30:00 26.2 C 43 % 12.64 C
188 22-08-2019 15:35:00 26.2 C 39 % 11.16 C
189 22-08-2019 15:40:00 26.2 C 38 % 10.77 C
190 22-08-2019 15:45:00 26.1 C 39 % 11.07 C
191 22-08-2019 15:50:00 26.2 C 40 % 11.54 C
192 22-08-2019 15:55:00 26.4 C 39 % 11.34 C
193 22-08-2019 16:00:00 26.6 C 38 % 11.12 C
194 22-08-2019 16:05:00 26.8 C 40 % 12.07 C
195 22-08-2019 16:10:00 26.8 C 37 % 10.9 C
196 22-08-2019 16:15:00 26.9 C 37 % 10.99 C
197 22-08-2019 16:20:00 27.1 C 39 % 11.96 C
198 22-08-2019 16:25:00 27.3 C 39 % 12.13 C
199 22-08-2019 16:30:00 27.6 C 37 % 11.6 C
200 22-08-2019 16:35:00 27.8 C 38 % 12.18 C
Sensor: Nr:Datum:Temp:Feuchte:Taupunkt:
Aussen-T/F 201 22-08-2019 16:40:00 27.7 C 34 % 10.42 C
202 22-08-2019 16:45:00 27.7 C 36 % 11.28 C
203 22-08-2019 16:50:00 27.8 C 37 % 11.78 C
204 22-08-2019 16:55:00 27.9 C 35 % 11.03 C
205 22-08-2019 17:00:00 28 C 35 % 11.12 C
206 22-08-2019 17:05:00 28.1 C 36 % 11.63 C
207 22-08-2019 17:10:00 28.1 C 34 % 10.77 C
208 22-08-2019 17:15:00 27.9 C 34 % 10.59 C
209 22-08-2019 17:20:00 27.9 C 34 % 10.59 C
210 22-08-2019 17:25:00 27.8 C 34 % 10.51 C
211 22-08-2019 17:30:00 27.9 C 34 % 10.59 C
212 22-08-2019 17:35:00 28.2 C 35 % 11.29 C
213 22-08-2019 17:40:00 28 C 34 % 10.68 C
214 22-08-2019 17:45:00 27.9 C 35 % 11.03 C
215 22-08-2019 17:50:00 28.1 C 36 % 11.63 C
216 22-08-2019 17:55:00 28.3 C 34 % 10.94 C
217 22-08-2019 18:00:00 28.3 C 32 % 10.03 C
218 22-08-2019 18:05:00 28.3 C 37 % 12.22 C
219 22-08-2019 18:10:00 28.3 C 33 % 10.49 C
220 22-08-2019 18:15:00 28.4 C 33 % 10.58 C
221 22-08-2019 18:20:00 28.4 C 32 % 10.12 C
222 22-08-2019 18:25:00 28.4 C 33 % 10.58 C
223 22-08-2019 18:30:00 28.4 C 34 % 11.03 C
224 22-08-2019 18:35:00 28.5 C 36 % 11.98 C
225 22-08-2019 18:40:00 28.4 C 32 % 10.12 C
Sensor: Nr:Datum:Temp:Feuchte:Taupunkt:
Aussen-T/F 226 22-08-2019 18:45:00 28.4 C 34 % 11.03 C
227 22-08-2019 18:50:00 28.4 C 38 % 12.72 C
228 22-08-2019 18:55:00 28.4 C 44 % 14.97 C
229 22-08-2019 19:00:00 28.3 C 45 % 15.23 C
230 22-08-2019 19:05:00 28.1 C 47 % 15.73 C
231 22-08-2019 19:10:00 27.7 C 46 % 15.03 C
232 22-08-2019 19:15:00 27.1 C 45 % 14.15 C
233 22-08-2019 19:20:00 26.6 C 48 % 14.69 C
234 22-08-2019 19:25:00 26.1 C 49 % 14.55 C
235 22-08-2019 19:30:00 25.7 C 51 % 14.81 C
236 22-08-2019 19:35:00 25.3 C 49 % 13.82 C
237 22-08-2019 19:40:00 24.9 C 51 % 14.07 C
238 22-08-2019 19:45:00 24.7 C 52 % 14.19 C
239 22-08-2019 19:50:00 24.3 C 53 % 14.11 C
240 22-08-2019 19:55:00 24 C 52 % 13.54 C
241 22-08-2019 20:00:00 23.7 C 53 % 13.56 C
242 22-08-2019 20:05:00 23.3 C 54 % 13.47 C
243 22-08-2019 20:10:00 22.9 C 55 % 13.38 C
244 22-08-2019 20:15:00 22.6 C 57 % 13.65 C
245 22-08-2019 20:20:00 22.2 C 58 % 13.55 C
246 22-08-2019 20:25:00 21.7 C 58 % 13.08 C
247 22-08-2019 20:30:00 21.3 C 59 % 12.97 C
248 22-08-2019 20:35:00 20.8 C 61 % 13.01 C
249 22-08-2019 20:40:00 20.3 C 61 % 12.54 C
250 22-08-2019 20:45:00 19.9 C 62 % 12.41 C
Sensor: Nr:Datum:Temp:Feuchte:Taupunkt:
Aussen-T/F 251 22-08-2019 20:50:00 19.7 C 62 % 12.22 C
252 22-08-2019 20:55:00 19.5 C 63 % 12.27 C
253 22-08-2019 21:00:00 19.3 C 65 % 12.56 C
254 22-08-2019 21:05:00 19.2 C 65 % 12.47 C
255 22-08-2019 21:10:00 18.9 C 65 % 12.18 C
256 22-08-2019 21:15:00 18.8 C 66 % 12.32 C
257 22-08-2019 21:20:00 18.6 C 68 % 12.58 C
258 22-08-2019 21:25:00 18.3 C 68 % 12.3 C
259 22-08-2019 21:30:00 18.1 C 69 % 12.33 C
260 22-08-2019 21:35:00 17.8 C 70 % 12.26 C
261 22-08-2019 21:40:00 17.7 C 72 % 12.59 C
262 22-08-2019 21:45:00 17.6 C 72 % 12.5 C
263 22-08-2019 21:50:00 17.4 C 73 % 12.51 C
264 22-08-2019 21:55:00 17.3 C 74 % 12.62 C
265 22-08-2019 22:00:00 17.2 C 74 % 12.53 C
266 22-08-2019 22:05:00 17 C 74 % 12.34 C
267 22-08-2019 22:10:00 16.8 C 74 % 12.14 C
268 22-08-2019 22:15:00 16.7 C 75 % 12.25 C
269 22-08-2019 22:20:00 16.6 C 76 % 12.36 C
270 22-08-2019 22:25:00 16.5 C 76 % 12.26 C
271 22-08-2019 22:30:00 16.4 C 77 % 12.36 C
272 22-08-2019 22:35:00 16.2 C 77 % 12.17 C
273 22-08-2019 22:40:00 16.1 C 78 % 12.27 C
274 22-08-2019 22:45:00 15.9 C 77 % 11.88 C
275 22-08-2019 22:50:00 15.8 C 76 % 11.58 C
Sensor: Nr:Datum:Temp:Feuchte:Taupunkt:
Aussen-T/F 276 22-08-2019 22:55:00 15.7 C 77 % 11.68 C
277 22-08-2019 23:00:00 15.6 C 77 % 11.59 C
278 22-08-2019 23:05:00 15.4 C 78 % 11.59 C
279 22-08-2019 23:10:00 15.3 C 78 % 11.49 C
280 22-08-2019 23:15:00 15.2 C 79 % 11.59 C
281 22-08-2019 23:20:00 15.1 C 79 % 11.49 C
282 22-08-2019 23:25:00 14.9 C 80 % 11.48 C
283 22-08-2019 23:30:00 14.8 C 80 % 11.39 C
284 22-08-2019 23:35:00 14.7 C 80 % 11.29 C
285 22-08-2019 23:40:00 14.6 C 80 % 11.19 C
286 22-08-2019 23:45:00 14.5 C 80 % 11.09 C
287 22-08-2019 23:50:00 14.4 C 80 % 11 C
288 22-08-2019 23:55:00 14.4 C 81 % 11.18 C
289 23-08-2019 00:00:00 14.3 C 81 % 11.09 C
290 23-08-2019 00:05:00 14.3 C 82 % 11.27 C
291 23-08-2019 00:10:00 14.2 C 81 % 10.99 C
292 23-08-2019 00:15:00 14.2 C 82 % 11.17 C
293 23-08-2019 00:20:00 14.1 C 83 % 11.26 C
294 23-08-2019 00:25:00 13.9 C 83 % 11.06 C
295 23-08-2019 00:30:00 13.8 C 83 % 10.97 C
296 23-08-2019 00:35:00 13.8 C 83 % 10.97 C
297 23-08-2019 00:40:00 13.7 C 84 % 11.05 C
298 23-08-2019 00:45:00 13.7 C 84 % 11.05 C
299 23-08-2019 00:50:00 13.7 C 84 % 11.05 C
300 23-08-2019 00:55:00 13.6 C 85 % 11.13 C
Sensor: Nr:Datum:Temp:Feuchte:Taupunkt:
Aussen-T/F 301 23-08-2019 01:00:00 13.6 C 85 % 11.13 C
302 23-08-2019 01:05:00 13.5 C 85 % 11.03 C
303 23-08-2019 01:10:00 13.4 C 84 % 10.75 C
304 23-08-2019 01:15:00 13.4 C 84 % 10.75 C
305 23-08-2019 01:20:00 13.3 C 85 % 10.83 C
306 23-08-2019 01:25:00 13.3 C 85 % 10.83 C
307 23-08-2019 01:30:00 13.2 C 85 % 10.74 C
308 23-08-2019 01:35:00 13.2 C 85 % 10.74 C
309 23-08-2019 01:40:00 13.1 C 85 % 10.64 C
310 23-08-2019 01:45:00 13.1 C 86 % 10.81 C
311 23-08-2019 01:50:00 13.1 C 86 % 10.81 C
312 23-08-2019 01:55:00 13 C 86 % 10.72 C
313 23-08-2019 02:00:00 12.9 C 86 % 10.62 C
314 23-08-2019 02:05:00 13 C 87 % 10.89 C
315 23-08-2019 02:10:00 13.1 C 87 % 10.99 C
316 23-08-2019 02:15:00 13.1 C 87 % 10.99 C
317 23-08-2019 02:20:00 13 C 86 % 10.72 C
318 23-08-2019 02:25:00 12.9 C 86 % 10.62 C
319 23-08-2019 02:30:00 12.8 C 87 % 10.69 C
320 23-08-2019 02:35:00 12.7 C 87 % 10.59 C
321 23-08-2019 02:40:00 12.6 C 87 % 10.5 C
322 23-08-2019 02:45:00 12.5 C 87 % 10.4 C
323 23-08-2019 02:50:00 12.4 C 88 % 10.47 C
324 23-08-2019 02:55:00 12.3 C 88 % 10.37 C
325 23-08-2019 03:00:00 12.3 C 88 % 10.37 C
Sensor: Nr:Datum:Temp:Feuchte:Taupunkt:
Aussen-T/F 326 23-08-2019 03:05:00 12.2 C 88 % 10.27 C
327 23-08-2019 03:10:00 12.1 C 88 % 10.17 C
328 23-08-2019 03:15:00 12.1 C 89 % 10.34 C
329 23-08-2019 03:20:00 12 C 89 % 10.25 C
330 23-08-2019 03:25:00 11.9 C 89 % 10.15 C
331 23-08-2019 03:30:00 11.9 C 89 % 10.15 C
332 23-08-2019 03:35:00 11.9 C 90 % 10.31 C
333 23-08-2019 03:40:00 11.9 C 90 % 10.31 C
334 23-08-2019 03:45:00 11.8 C 90 % 10.21 C
335 23-08-2019 03:50:00 11.8 C 90 % 10.21 C
336 23-08-2019 03:55:00 11.8 C 90 % 10.21 C
337 23-08-2019 04:00:00 11.8 C 91 % 10.38 C
338 23-08-2019 04:05:00 11.7 C 91 % 10.28 C
339 23-08-2019 04:10:00 11.7 C 91 % 10.28 C
340 23-08-2019 04:15:00 11.6 C 90 % 10.02 C
341 23-08-2019 04:20:00 11.6 C 91 % 10.18 C
342 23-08-2019 04:25:00 11.6 C 91 % 10.18 C
343 23-08-2019 04:30:00 11.6 C 91 % 10.18 C
344 23-08-2019 04:35:00 11.5 C 91 % 10.08 C
345 23-08-2019 04:40:00 11.5 C 91 % 10.08 C
346 23-08-2019 04:45:00 11.4 C 91 % 9.98 C
347 23-08-2019 04:50:00 11.4 C 92 % 10.15 C
348 23-08-2019 04:55:00 11.4 C 92 % 10.15 C
349 23-08-2019 05:00:00 11.3 C 91 % 9.89 C
350 23-08-2019 05:05:00 11.3 C 92 % 10.05 C
Sensor: Nr:Datum:Temp:Feuchte:Taupunkt:
Aussen-T/F 351 23-08-2019 05:10:00 11.2 C 92 % 9.95 C
352 23-08-2019 05:15:00 11.2 C 92 % 9.95 C
353 23-08-2019 05:20:00 11.2 C 92 % 9.95 C
354 23-08-2019 05:25:00 11.1 C 92 % 9.85 C
355 23-08-2019 05:30:00 11 C 92 % 9.75 C
356 23-08-2019 05:35:00 11 C 92 % 9.75 C
357 23-08-2019 05:40:00 10.9 C 92 % 9.65 C
358 23-08-2019 05:45:00 10.9 C 92 % 9.65 C
359 23-08-2019 05:50:00 10.9 C 92 % 9.65 C
360 23-08-2019 05:55:00 10.8 C 92 % 9.55 C
361 23-08-2019 06:00:00 10.8 C 93 % 9.71 C
362 23-08-2019 06:05:00 10.8 C 93 % 9.71 C
363 23-08-2019 06:10:00 10.8 C 93 % 9.71 C
364 23-08-2019 06:15:00 10.7 C 93 % 9.62 C
365 23-08-2019 06:20:00 10.7 C 93 % 9.62 C
366 23-08-2019 06:25:00 10.6 C 93 % 9.52 C
367 23-08-2019 06:30:00 10.6 C 93 % 9.52 C
368 23-08-2019 06:35:00 10.6 C 93 % 9.52 C
369 23-08-2019 06:40:00 10.6 C 93 % 9.52 C
370 23-08-2019 06:45:00 10.6 C 94 % 9.68 C
371 23-08-2019 06:50:00 10.6 C 94 % 9.68 C
372 23-08-2019 06:55:00 10.6 C 94 % 9.68 C
373 23-08-2019 07:00:00 10.6 C 94 % 9.68 C
374 23-08-2019 07:05:00 10.6 C 94 % 9.68 C
375 23-08-2019 07:10:00 10.6 C 94 % 9.68 C
Sensor: Nr:Datum:Temp:Feuchte:Taupunkt:
Aussen-T/F 376 23-08-2019 07:15:00 10.6 C 94 % 9.68 C
377 23-08-2019 07:20:00 10.6 C 94 % 9.68 C
378 23-08-2019 07:25:00 10.6 C 94 % 9.68 C
379 23-08-2019 07:30:00 10.6 C 94 % 9.68 C
380 23-08-2019 07:35:00 10.7 C 94 % 9.77 C
381 23-08-2019 07:40:00 10.8 C 95 % 10.03 C
382 23-08-2019 07:45:00 10.9 C 95 % 10.13 C
383 23-08-2019 07:50:00 10.9 C 94 % 9.97 C
384 23-08-2019 07:55:00 10.9 C 94 % 9.97 C
385 23-08-2019 08:00:00 11 C 94 % 10.07 C
386 23-08-2019 08:05:00 11.1 C 95 % 10.33 C
387 23-08-2019 08:10:00 11.1 C 95 % 10.33 C
388 23-08-2019 08:15:00 11.2 C 95 % 10.43 C
389 23-08-2019 08:20:00 11.2 C 95 % 10.43 C
390 23-08-2019 08:25:00 11.2 C 95 % 10.43 C
391 23-08-2019 08:30:00 11.3 C 95 % 10.53 C
392 23-08-2019 08:35:00 11.3 C 95 % 10.53 C
393 23-08-2019 08:40:00 11.4 C 95 % 10.63 C
394 23-08-2019 08:45:00 11.5 C 95 % 10.73 C
395 23-08-2019 08:50:00 11.6 C 95 % 10.83 C
396 23-08-2019 08:55:00 11.7 C 95 % 10.93 C
397 23-08-2019 09:00:00 11.8 C 95 % 11.03 C
398 23-08-2019 09:05:00 11.8 C 95 % 11.03 C
399 23-08-2019 09:10:00 11.9 C 95 % 11.13 C
400 23-08-2019 09:15:00 12.1 C 95 % 11.32 C
Sensor: Nr:Datum:Temp:Feuchte:Taupunkt:
Aussen-T/F 401 23-08-2019 09:20:00 12.1 C 95 % 11.32 C
402 23-08-2019 09:25:00 12.2 C 95 % 11.42 C
403 23-08-2019 09:30:00 12.3 C 95 % 11.52 C
404 23-08-2019 09:35:00 12.5 C 95 % 11.72 C
405 23-08-2019 09:40:00 12.7 C 95 % 11.92 C
406 23-08-2019 09:45:00 12.8 C 95 % 12.02 C
407 23-08-2019 09:50:00 12.9 C 95 % 12.12 C
408 23-08-2019 09:55:00 13.1 C 95 % 12.32 C
409 23-08-2019 10:00:00 13.2 C 95 % 12.42 C
410 23-08-2019 10:05:00 13.4 C 95 % 12.62 C
411 23-08-2019 10:10:00 13.6 C 95 % 12.81 C
412 23-08-2019 10:15:00 13.8 C 95 % 13.01 C
413 23-08-2019 10:20:00 13.9 C 95 % 13.11 C
414 23-08-2019 10:25:00 14.1 C 95 % 13.31 C
415 23-08-2019 10:30:00 14.3 C 95 % 13.51 C
416 23-08-2019 10:35:00 14.6 C 94 % 13.65 C
417 23-08-2019 10:40:00 14.9 C 94 % 13.94 C
418 23-08-2019 10:45:00 15.2 C 93 % 14.08 C
419 23-08-2019 10:50:00 15.4 C 92 % 14.11 C
420 23-08-2019 10:55:00 15.7 C 91 % 14.24 C
421 23-08-2019 11:00:00 16 C 90 % 14.36 C
422 23-08-2019 11:05:00 16.3 C 89 % 14.48 C
423 23-08-2019 11:10:00 16.6 C 88 % 14.6 C
424 23-08-2019 11:15:00 16.9 C 87 % 14.72 C
425 23-08-2019 11:20:00 17.2 C 87 % 15.02 C
Sensor: Nr:Datum:Temp:Feuchte:Taupunkt:
Aussen-T/F 426 23-08-2019 11:25:00 17.4 C 86 % 15.03 C
427 23-08-2019 11:30:00 17.7 C 84 % 14.96 C
428 23-08-2019 11:35:00 18 C 84 % 15.26 C
429 23-08-2019 11:40:00 18.3 C 83 % 15.36 C
430 23-08-2019 11:45:00 18.6 C 82 % 15.47 C
431 23-08-2019 11:50:00 18.9 C 80 % 15.38 C
432 23-08-2019 11:55:00 19.3 C 80 % 15.76 C
433 23-08-2019 12:00:00 19.6 C 79 % 15.86 C
434 23-08-2019 12:05:00 19.8 C 77 % 15.65 C
435 23-08-2019 12:10:00 20.1 C 75 % 15.53 C
436 23-08-2019 12:15:00 20.4 C 74 % 15.61 C
437 23-08-2019 12:20:00 20.7 C 71 % 15.25 C
438 23-08-2019 12:25:00 20.9 C 69 % 15 C
439 23-08-2019 12:30:00 21.3 C 68 % 15.16 C
440 23-08-2019 12:35:00 21.7 C 66 % 15.07 C
441 23-08-2019 12:40:00 22 C 66 % 15.36 C
442 23-08-2019 12:45:00 22.2 C 62 % 14.58 C
443 23-08-2019 12:50:00 22.5 C 61 % 14.61 C
444 23-08-2019 12:55:00 22.8 C 60 % 14.63 C
445 23-08-2019 13:00:00 23.1 C 55 % 13.57 C
446 23-08-2019 13:05:00 23.3 C 54 % 13.47 C
447 23-08-2019 13:10:00 23.6 C 54 % 13.75 C
448 23-08-2019 13:15:00 23.8 C 54 % 13.94 C
449 23-08-2019 13:20:00 23.9 C 52 % 13.45 C
450 23-08-2019 13:25:00 24.1 C 50 % 13.03 C
Sensor: Nr:Datum:Temp:Feuchte:Taupunkt:
Aussen-T/F 451 23-08-2019 13:30:00 24.3 C 49 % 12.91 C
452 23-08-2019 13:35:00 24.4 C 50 % 13.31 C
453 23-08-2019 13:40:00 24.5 C 50 % 13.4 C
454 23-08-2019 13:45:00 24.6 C 50 % 13.49 C
455 23-08-2019 13:50:00 24.7 C 46 % 12.31 C
456 23-08-2019 13:55:00 24.9 C 46 % 12.49 C
457 23-08-2019 14:00:00 25.2 C 45 % 12.43 C
458 23-08-2019 14:05:00 25.4 C 43 % 11.92 C
459 23-08-2019 14:10:00 25.6 C 46 % 13.12 C
460 23-08-2019 14:15:00 25.8 C 42 % 11.92 C
461 23-08-2019 14:20:00 26 C 42 % 12.1 C
462 23-08-2019 14:25:00 26.2 C 41 % 11.91 C
463 23-08-2019 14:30:00 26.3 C 40 % 11.63 C
464 23-08-2019 14:35:00 26.4 C 40 % 11.72 C
465 23-08-2019 14:40:00 26.4 C 43 % 12.82 C
466 23-08-2019 14:45:00 26.6 C 42 % 12.64 C
467 23-08-2019 14:50:00 26.8 C 42 % 12.82 C
468 23-08-2019 14:55:00 26.9 C 41 % 12.54 C
469 23-08-2019 15:00:00 26.9 C 38 % 11.39 C
470 23-08-2019 15:05:00 27.1 C 39 % 11.96 C
471 23-08-2019 15:10:00 27.4 C 40 % 12.61 C
472 23-08-2019 15:15:00 27.6 C 39 % 12.4 C
473 23-08-2019 15:20:00 27.8 C 41 % 13.34 C
474 23-08-2019 15:25:00 27.9 C 38 % 12.27 C
475 23-08-2019 15:30:00 28.1 C 37 % 12.04 C
Sensor: Nr:Datum:Temp:Feuchte:Taupunkt:
Aussen-T/F 476 23-08-2019 15:35:00 28.2 C 39 % 12.93 C
477 23-08-2019 15:40:00 28.3 C 38 % 12.63 C
478 23-08-2019 15:45:00 28.4 C 37 % 12.31 C
479 23-08-2019 15:50:00 28.3 C 36 % 11.81 C
480 23-08-2019 15:55:00 28.3 C 37 % 12.22 C
481 23-08-2019 16:00:00 28.4 C 37 % 12.31 C
482 23-08-2019 16:05:00 28.6 C 38 % 12.89 C
483 23-08-2019 16:10:00 28.7 C 35 % 11.73 C
484 23-08-2019 16:15:00 28.8 C 35 % 11.82 C
485 23-08-2019 16:20:00 29.1 C 36 % 12.51 C
486 23-08-2019 16:25:00 29.3 C 34 % 11.82 C
487 23-08-2019 16:30:00 29.4 C 34 % 11.9 C
488 23-08-2019 16:35:00 29.4 C 33 % 11.45 C
489 23-08-2019 16:40:00 29.3 C 34 % 11.82 C
490 23-08-2019 16:45:00 29.5 C 34 % 11.99 C
491 23-08-2019 16:50:00 29.6 C 36 % 12.95 C
492 23-08-2019 16:55:00 29.7 C 33 % 11.71 C
493 23-08-2019 17:00:00 29.6 C 34 % 12.08 C
494 23-08-2019 17:05:00 29.4 C 34 % 11.9 C
495 23-08-2019 17:10:00 29.5 C 35 % 12.43 C
496 23-08-2019 17:15:00 29.5 C 33 % 11.54 C
497 23-08-2019 17:20:00 29.3 C 34 % 11.82 C
498 23-08-2019 17:25:00 29.4 C 34 % 11.9 C
499 23-08-2019 17:30:00 29.3 C 34 % 11.82 C
500 23-08-2019 17:35:00 29.4 C 35 % 12.34 C
Sensor: Nr:Datum:Temp:Feuchte:Taupunkt:
Aussen-T/F 501 23-08-2019 17:40:00 29.3 C 34 % 11.82 C
502 23-08-2019 17:45:00 29.3 C 34 % 11.82 C
503 23-08-2019 17:50:00 29.3 C 34 % 11.82 C
504 23-08-2019 17:55:00 29.2 C 33 % 11.28 C
505 23-08-2019 18:00:00 29.1 C 33 % 11.19 C
506 23-08-2019 18:05:00 29.2 C 33 % 11.28 C
507 23-08-2019 18:10:00 29 C 33 % 11.1 C
508 23-08-2019 18:15:00 29 C 34 % 11.55 C
509 23-08-2019 18:20:00 29.2 C 32 % 10.81 C
510 23-08-2019 18:25:00 29 C 32 % 10.64 C
511 23-08-2019 18:30:00 28.9 C 32 % 10.55 C
512 23-08-2019 18:35:00 28.9 C 33 % 11.02 C
513 23-08-2019 18:40:00 28.9 C 32 % 10.55 C
514 23-08-2019 18:45:00 28.8 C 32 % 10.47 C
515 23-08-2019 18:50:00 28.7 C 38 % 12.98 C
516 23-08-2019 18:55:00 28.6 C 33 % 10.76 C
517 23-08-2019 19:00:00 28.5 C 42 % 14.34 C
518 23-08-2019 19:05:00 28.4 C 45 % 15.32 C
519 23-08-2019 19:10:00 28.2 C 37 % 12.13 C
520 23-08-2019 19:15:00 28.1 C 45 % 15.05 C
521 23-08-2019 19:20:00 27.9 C 44 % 14.52 C
522 23-08-2019 19:25:00 27.7 C 46 % 15.03 C
523 23-08-2019 19:30:00 27.3 C 48 % 15.33 C
524 23-08-2019 19:35:00 26.9 C 48 % 14.96 C
525 23-08-2019 19:40:00 26.4 C 49 % 14.83 C
Sensor: Nr:Datum:Temp:Feuchte:Taupunkt:
Aussen-T/F 526 23-08-2019 19:45:00 26.1 C 50 % 14.87 C
527 23-08-2019 19:50:00 25.7 C 51 % 14.81 C
528 23-08-2019 19:55:00 25.3 C 51 % 14.44 C
529 23-08-2019 20:00:00 24.9 C 51 % 14.07 C
530 23-08-2019 20:05:00 24.6 C 52 % 14.09 C
531 23-08-2019 20:10:00 24.2 C 52 % 13.73 C
532 23-08-2019 20:15:00 23.8 C 54 % 13.94 C
533 23-08-2019 20:20:00 23.3 C 54 % 13.47 C
534 23-08-2019 20:25:00 23 C 55 % 13.48 C
535 23-08-2019 20:30:00 22.7 C 56 % 13.47 C
536 23-08-2019 20:35:00 22.4 C 57 % 13.47 C
537 23-08-2019 20:40:00 22.2 C 58 % 13.55 C
538 23-08-2019 20:45:00 21.9 C 59 % 13.53 C
539 23-08-2019 20:50:00 21.7 C 59 % 13.34 C
540 23-08-2019 20:55:00 21.5 C 59 % 13.15 C
541 23-08-2019 21:00:00 21.4 C 61 % 13.57 C
542 23-08-2019 21:05:00 21.2 C 62 % 13.63 C
543 23-08-2019 21:10:00 21.1 C 62 % 13.54 C
544 23-08-2019 21:15:00 20.8 C 64 % 13.74 C
545 23-08-2019 21:20:00 20.6 C 65 % 13.79 C
546 23-08-2019 21:25:00 20.2 C 65 % 13.41 C
547 23-08-2019 21:30:00 19.9 C 66 % 13.36 C
548 23-08-2019 21:35:00 19.7 C 67 % 13.4 C
549 23-08-2019 21:40:00 19.5 C 66 % 12.98 C
550 23-08-2019 21:45:00 19.3 C 66 % 12.79 C
Sensor: Nr:Datum:Temp:Feuchte:Taupunkt:
Aussen-T/F 551 23-08-2019 21:50:00 19.2 C 67 % 12.93 C
552 23-08-2019 21:55:00 19.1 C 69 % 13.28 C
553 23-08-2019 22:00:00 18.9 C 69 % 13.09 C
554 23-08-2019 22:05:00 18.7 C 70 % 13.12 C
555 23-08-2019 22:10:00 18.5 C 71 % 13.15 C
556 23-08-2019 22:15:00 18.3 C 72 % 13.17 C
557 23-08-2019 22:20:00 18.1 C 72 % 12.98 C
558 23-08-2019 22:25:00 17.9 C 73 % 12.99 C
559 23-08-2019 22:30:00 17.7 C 73 % 12.8 C
560 23-08-2019 22:35:00 17.6 C 74 % 12.91 C
561 23-08-2019 22:40:00 17.3 C 74 % 12.62 C
562 23-08-2019 22:45:00 17.2 C 75 % 12.73 C
563 23-08-2019 22:50:00 17.1 C 75 % 12.64 C
564 23-08-2019 22:55:00 16.9 C 76 % 12.65 C
565 23-08-2019 23:00:00 16.8 C 76 % 12.55 C
566 23-08-2019 23:05:00 16.7 C 76 % 12.45 C
567 23-08-2019 23:10:00 16.6 C 76 % 12.36 C
568 23-08-2019 23:15:00 16.4 C 75 % 11.96 C
569 23-08-2019 23:20:00 16.3 C 76 % 12.07 C
570 23-08-2019 23:25:00 16.3 C 76 % 12.07 C
571 23-08-2019 23:30:00 16.2 C 77 % 12.17 C
572 23-08-2019 23:35:00 16.1 C 77 % 12.07 C
573 23-08-2019 23:40:00 16 C 77 % 11.97 C
574 23-08-2019 23:45:00 15.9 C 78 % 12.07 C
575 23-08-2019 23:50:00 15.8 C 78 % 11.97 C
Sensor: Nr:Datum:Temp:Feuchte:Taupunkt:
Aussen-T/F 576 23-08-2019 23:55:00 15.7 C 79 % 12.07 C
577 24-08-2019 00:00:00 15.6 C 79 % 11.97 C
578 24-08-2019 00:05:00 15.4 C 79 % 11.78 C
579 24-08-2019 00:10:00 15.3 C 79 % 11.68 C
580 24-08-2019 00:15:00 15.2 C 80 % 11.78 C
581 24-08-2019 00:20:00 15.1 C 80 % 11.68 C
582 24-08-2019 00:25:00 15 C 80 % 11.58 C
583 24-08-2019 00:30:00 14.9 C 81 % 11.67 C
584 24-08-2019 00:35:00 14.8 C 81 % 11.57 C
585 24-08-2019 00:40:00 14.7 C 81 % 11.48 C
586 24-08-2019 00:45:00 14.6 C 83 % 11.75 C
587 24-08-2019 00:50:00 14.6 C 83 % 11.75 C
588 24-08-2019 00:55:00 14.4 C 83 % 11.55 C
589 24-08-2019 01:00:00 14.4 C 83 % 11.55 C
590 24-08-2019 01:05:00 14.3 C 84 % 11.64 C
591 24-08-2019 01:10:00 14.2 C 84 % 11.54 C
592 24-08-2019 01:15:00 14.2 C 84 % 11.54 C
593 24-08-2019 01:20:00 14.1 C 84 % 11.44 C
594 24-08-2019 01:25:00 14.1 C 84 % 11.44 C
595 24-08-2019 01:30:00 14 C 85 % 11.52 C
596 24-08-2019 01:35:00 14 C 85 % 11.52 C
597 24-08-2019 01:40:00 13.9 C 85 % 11.42 C
598 24-08-2019 01:45:00 13.9 C 85 % 11.42 C
599 24-08-2019 01:50:00 13.8 C 85 % 11.32 C
600 24-08-2019 01:55:00 13.8 C 86 % 11.5 C
Sensor: Nr:Datum:Temp:Feuchte:Taupunkt:
Aussen-T/F 601 24-08-2019 02:00:00 13.8 C 86 % 11.5 C
602 24-08-2019 02:05:00 13.8 C 86 % 11.5 C
603 24-08-2019 02:10:00 13.8 C 86 % 11.5 C
604 24-08-2019 02:15:00 13.7 C 86 % 11.4 C
605 24-08-2019 02:20:00 13.6 C 86 % 11.3 C
606 24-08-2019 02:25:00 13.5 C 86 % 11.21 C
607 24-08-2019 02:30:00 13.4 C 86 % 11.11 C
608 24-08-2019 02:35:00 13.3 C 87 % 11.18 C
609 24-08-2019 02:40:00 13.2 C 87 % 11.09 C
610 24-08-2019 02:45:00 13.1 C 87 % 10.99 C
611 24-08-2019 02:50:00 13 C 87 % 10.89 C
612 24-08-2019 02:55:00 12.9 C 88 % 10.96 C
613 24-08-2019 03:00:00 12.9 C 88 % 10.96 C
614 24-08-2019 03:05:00 12.9 C 88 % 10.96 C
615 24-08-2019 03:10:00 12.8 C 88 % 10.86 C
616 24-08-2019 03:15:00 12.8 C 88 % 10.86 C
617 24-08-2019 03:20:00 12.8 C 88 % 10.86 C
618 24-08-2019 03:25:00 12.7 C 89 % 10.94 C
619 24-08-2019 03:30:00 12.7 C 89 % 10.94 C
620 24-08-2019 03:35:00 12.7 C 89 % 10.94 C
621 24-08-2019 03:40:00 12.6 C 89 % 10.84 C
622 24-08-2019 03:45:00 12.5 C 89 % 10.74 C
623 24-08-2019 03:50:00 12.5 C 90 % 10.91 C
624 24-08-2019 03:55:00 12.5 C 90 % 10.91 C
625 24-08-2019 04:00:00 12.4 C 90 % 10.81 C
Sensor: Nr:Datum:Temp:Feuchte:Taupunkt:
Aussen-T/F 626 24-08-2019 04:05:00 12.3 C 90 % 10.71 C
627 24-08-2019 04:10:00 12.3 C 90 % 10.71 C
628 24-08-2019 04:15:00 12.2 C 90 % 10.61 C
629 24-08-2019 04:20:00 12.1 C 90 % 10.51 C
630 24-08-2019 04:25:00 12.1 C 90 % 10.51 C
631 24-08-2019 04:30:00 12 C 90 % 10.41 C
632 24-08-2019 04:35:00 12 C 90 % 10.41 C
633 24-08-2019 04:40:00 11.9 C 91 % 10.48 C
634 24-08-2019 04:45:00 11.9 C 91 % 10.48 C
635 24-08-2019 04:50:00 11.8 C 91 % 10.38 C
636 24-08-2019 04:55:00 11.8 C 91 % 10.38 C
637 24-08-2019 05:00:00 11.8 C 91 % 10.38 C
638 24-08-2019 05:05:00 11.8 C 91 % 10.38 C
639 24-08-2019 05:10:00 11.7 C 91 % 10.28 C
640 24-08-2019 05:15:00 11.7 C 91 % 10.28 C
641 24-08-2019 05:20:00 11.7 C 92 % 10.44 C
642 24-08-2019 05:25:00 11.7 C 92 % 10.44 C
643 24-08-2019 05:30:00 11.6 C 92 % 10.35 C
644 24-08-2019 05:35:00 11.6 C 92 % 10.35 C
645 24-08-2019 05:40:00 11.6 C 92 % 10.35 C
646 24-08-2019 05:45:00 11.6 C 92 % 10.35 C
647 24-08-2019 05:50:00 11.6 C 92 % 10.35 C
648 24-08-2019 05:55:00 11.6 C 93 % 10.51 C
649 24-08-2019 06:00:00 11.6 C 93 % 10.51 C
650 24-08-2019 06:05:00 11.6 C 92 % 10.35 C
Sensor: Nr:Datum:Temp:Feuchte:Taupunkt:
Aussen-T/F 651 24-08-2019 06:10:00 11.5 C 92 % 10.25 C
652 24-08-2019 06:15:00 11.4 C 93 % 10.31 C
653 24-08-2019 06:20:00 11.4 C 93 % 10.31 C
654 24-08-2019 06:25:00 11.4 C 93 % 10.31 C
655 24-08-2019 06:30:00 11.4 C 93 % 10.31 C
656 24-08-2019 06:35:00 11.4 C 93 % 10.31 C
657 24-08-2019 06:40:00 11.4 C 93 % 10.31 C
658 24-08-2019 06:45:00 11.4 C 93 % 10.31 C
659 24-08-2019 06:50:00 11.3 C 93 % 10.21 C
660 24-08-2019 06:55:00 11.3 C 93 % 10.21 C
661 24-08-2019 07:00:00 11.5 C 94 % 10.57 C
662 24-08-2019 07:05:00 11.6 C 94 % 10.67 C
663 24-08-2019 07:10:00 11.6 C 94 % 10.67 C
664 24-08-2019 07:15:00 11.6 C 94 % 10.67 C
665 24-08-2019 07:20:00 11.5 C 94 % 10.57 C
666 24-08-2019 07:25:00 11.5 C 94 % 10.57 C
667 24-08-2019 07:30:00 11.5 C 94 % 10.57 C
668 24-08-2019 07:35:00 11.5 C 94 % 10.57 C
669 24-08-2019 07:40:00 11.6 C 94 % 10.67 C
670 24-08-2019 07:45:00 11.6 C 94 % 10.67 C
671 24-08-2019 07:50:00 11.7 C 94 % 10.77 C
672 24-08-2019 07:55:00 11.7 C 94 % 10.77 C
673 24-08-2019 08:00:00 11.7 C 94 % 10.77 C
674 24-08-2019 08:05:00 11.8 C 94 % 10.87 C
675 24-08-2019 08:10:00 11.8 C 94 % 10.87 C
Sensor: Nr:Datum:Temp:Feuchte:Taupunkt:
Aussen-T/F 676 24-08-2019 08:15:00 11.9 C 94 % 10.97 C
677 24-08-2019 08:20:00 11.9 C 94 % 10.97 C
678 24-08-2019 08:25:00 12 C 94 % 11.07 C
679 24-08-2019 08:30:00 12.1 C 94 % 11.16 C
680 24-08-2019 08:35:00 12.2 C 94 % 11.26 C
681 24-08-2019 08:40:00 12.2 C 94 % 11.26 C
682 24-08-2019 08:45:00 12.3 C 94 % 11.36 C
683 24-08-2019 08:50:00 12.4 C 95 % 11.62 C
684 24-08-2019 08:55:00 12.5 C 95 % 11.72 C
685 24-08-2019 09:00:00 12.6 C 94 % 11.66 C
686 24-08-2019 09:05:00 12.7 C 94 % 11.76 C
687 24-08-2019 09:10:00 12.8 C 94 % 11.86 C
688 24-08-2019 09:15:00 12.9 C 94 % 11.96 C
689 24-08-2019 09:20:00 13 C 94 % 12.06 C
690 24-08-2019 09:25:00 13.1 C 94 % 12.16 C
691 24-08-2019 09:30:00 13.2 C 94 % 12.26 C
692 24-08-2019 09:35:00 13.4 C 94 % 12.45 C
693 24-08-2019 09:40:00 13.6 C 94 % 12.65 C
694 24-08-2019 09:45:00 13.7 C 94 % 12.75 C
695 24-08-2019 09:50:00 13.8 C 94 % 12.85 C
696 24-08-2019 09:55:00 14 C 94 % 13.05 C
697 24-08-2019 10:00:00 14.2 C 94 % 13.25 C
698 24-08-2019 10:05:00 14.4 C 94 % 13.45 C
699 24-08-2019 10:10:00 14.6 C 94 % 13.65 C
700 24-08-2019 10:15:00 14.8 C 94 % 13.84 C
Sensor: Nr:Datum:Temp:Feuchte:Taupunkt:
Aussen-T/F 701 24-08-2019 10:20:00 14.9 C 93 % 13.78 C
702 24-08-2019 10:25:00 15.2 C 93 % 14.08 C
703 24-08-2019 10:30:00 15.5 C 92 % 14.21 C
704 24-08-2019 10:35:00 15.8 C 91 % 14.33 C
705 24-08-2019 10:40:00 16.2 C 90 % 14.56 C
706 24-08-2019 10:45:00 16.5 C 88 % 14.51 C
707 24-08-2019 10:50:00 16.8 C 88 % 14.8 C
708 24-08-2019 10:55:00 17.1 C 87 % 14.92 C
709 24-08-2019 11:00:00 17.4 C 86 % 15.03 C
710 24-08-2019 11:05:00 17.7 C 85 % 15.15 C
711 24-08-2019 11:10:00 18 C 83 % 15.07 C
712 24-08-2019 11:15:00 18.3 C 82 % 15.17 C
713 24-08-2019 11:20:00 18.6 C 81 % 15.28 C
714 24-08-2019 11:25:00 18.8 C 81 % 15.47 C
715 24-08-2019 11:30:00 19.1 C 79 % 15.37 C
716 24-08-2019 11:35:00 19.3 C 80 % 15.76 C
717 24-08-2019 11:40:00 19.4 C 76 % 15.06 C
718 24-08-2019 11:45:00 19.7 C 76 % 15.35 C
719 24-08-2019 11:50:00 20 C 74 % 15.23 C
720 24-08-2019 11:55:00 20.3 C 73 % 15.3 C
721 24-08-2019 12:00:00 20.6 C 72 % 15.38 C
722 24-08-2019 12:05:00 20.8 C 73 % 15.78 C
723 24-08-2019 12:10:00 21.1 C 73 % 16.07 C
724 24-08-2019 12:15:00 21.3 C 70 % 15.61 C
725 24-08-2019 12:20:00 21.7 C 68 % 15.54 C
Sensor: Nr:Datum:Temp:Feuchte:Taupunkt:
Aussen-T/F 726 24-08-2019 12:25:00 22.1 C 69 % 16.15 C
727 24-08-2019 12:30:00 22.4 C 67 % 15.97 C
728 24-08-2019 12:35:00 22.7 C 63 % 15.3 C
729 24-08-2019 12:40:00 23.1 C 61 % 15.17 C
730 24-08-2019 12:45:00 23.4 C 60 % 15.19 C
731 24-08-2019 12:50:00 23.7 C 59 % 15.21 C
732 24-08-2019 12:55:00 24 C 58 % 15.23 C
733 24-08-2019 13:00:00 24.3 C 57 % 15.24 C
734 24-08-2019 13:05:00 24.6 C 54 % 14.68 C
735 24-08-2019 13:10:00 24.8 C 55 % 15.15 C
736 24-08-2019 13:15:00 24.9 C 52 % 14.37 C
737 24-08-2019 13:20:00 25.2 C 53 % 14.94 C
738 24-08-2019 13:25:00 25.3 C 53 % 15.03 C
739 24-08-2019 13:30:00 25.6 C 51 % 14.71 C
740 24-08-2019 13:35:00 25.7 C 52 % 15.11 C
741 24-08-2019 13:40:00 25.8 C 51 % 14.9 C
742 24-08-2019 13:45:00 25.9 C 50 % 14.68 C
743 24-08-2019 13:50:00 26.3 C 50 % 15.05 C
744 24-08-2019 13:55:00 26.4 C 48 % 14.51 C
745 24-08-2019 14:00:00 26.4 C 48 % 14.51 C
746 24-08-2019 14:05:00 26.6 C 47 % 14.36 C
747 24-08-2019 14:10:00 26.7 C 47 % 14.45 C
748 24-08-2019 14:15:00 26.7 C 47 % 14.45 C
749 24-08-2019 14:20:00 26.8 C 46 % 14.21 C
750 24-08-2019 14:25:00 27 C 45 % 14.06 C
Sensor: Nr:Datum:Temp:Feuchte:Taupunkt:
Aussen-T/F 751 24-08-2019 14:30:00 27.1 C 42 % 13.09 C
752 24-08-2019 14:35:00 27.2 C 45 % 14.24 C
753 24-08-2019 14:40:00 27.3 C 41 % 12.9 C
754 24-08-2019 14:45:00 27.4 C 38 % 11.83 C
755 24-08-2019 14:50:00 27.6 C 40 % 12.79 C
756 24-08-2019 14:55:00 27.8 C 38 % 12.18 C
757 24-08-2019 15:00:00 28 C 38 % 12.36 C
758 24-08-2019 15:05:00 28.2 C 39 % 12.93 C
759 24-08-2019 15:10:00 28.3 C 39 % 13.02 C
760 24-08-2019 15:15:00 28.4 C 38 % 12.72 C
761 24-08-2019 15:20:00 28.6 C 38 % 12.89 C
762 24-08-2019 15:25:00 28.8 C 37 % 12.66 C
763 24-08-2019 15:30:00 28.9 C 38 % 13.16 C
764 24-08-2019 15:35:00 28.9 C 37 % 12.75 C
765 24-08-2019 15:40:00 28.9 C 38 % 13.16 C
766 24-08-2019 15:45:00 29 C 37 % 12.84 C
767 24-08-2019 15:50:00 29.1 C 37 % 12.93 C
768 24-08-2019 15:55:00 29.2 C 36 % 12.6 C
769 24-08-2019 16:00:00 29.3 C 39 % 13.91 C
770 24-08-2019 16:05:00 29.3 C 37 % 13.1 C
771 24-08-2019 16:10:00 29.5 C 35 % 12.43 C
772 24-08-2019 16:15:00 29.7 C 37 % 13.46 C
773 24-08-2019 16:20:00 30 C 38 % 14.13 C
774 24-08-2019 16:25:00 30.1 C 32 % 11.59 C
775 24-08-2019 16:30:00 29.9 C 33 % 11.89 C
Sensor: Nr:Datum:Temp:Feuchte:Taupunkt:
Aussen-T/F 776 24-08-2019 16:35:00 30.1 C 33 % 12.06 C
777 24-08-2019 16:40:00 30.2 C 31 % 11.2 C
778 24-08-2019 16:45:00 30 C 32 % 11.51 C
779 24-08-2019 16:50:00 29.8 C 33 % 11.8 C
780 24-08-2019 16:55:00 29.9 C 33 % 11.89 C
781 24-08-2019 17:00:00 29.9 C 32 % 11.42 C
782 24-08-2019 17:05:00 29.8 C 33 % 11.8 C
783 24-08-2019 17:10:00 29.9 C 34 % 12.34 C
784 24-08-2019 17:15:00 29.9 C 32 % 11.42 C
785 24-08-2019 17:20:00 29.9 C 31 % 10.94 C
786 24-08-2019 17:25:00 30 C 31 % 11.03 C
787 24-08-2019 17:30:00 30.1 C 32 % 11.59 C
788 24-08-2019 17:35:00 30.2 C 32 % 11.68 C
789 24-08-2019 17:40:00 30.6 C 35 % 13.39 C
790 24-08-2019 17:45:00 30.8 C 37 % 14.43 C
791 24-08-2019 17:50:00 31.1 C 33 % 12.93 C
792 24-08-2019 17:55:00 31.3 C 31 % 12.15 C
793 24-08-2019 18:00:00 31.1 C 30 % 11.48 C
794 24-08-2019 18:05:00 30.8 C 32 % 12.2 C
795 24-08-2019 18:10:00 30.8 C 32 % 12.2 C
796 24-08-2019 18:15:00 30.6 C 33 % 12.5 C
797 24-08-2019 18:20:00 30.7 C 36 % 13.92 C
798 24-08-2019 18:25:00 30.8 C 33 % 12.67 C
799 24-08-2019 18:30:00 30.7 C 35 % 13.48 C
800 24-08-2019 18:35:00 30.7 C 36 % 13.92 C
Sensor: Nr:Datum:Temp:Feuchte:Taupunkt:
Aussen-T/F 801 24-08-2019 18:40:00 30.6 C 39 % 15.07 C
802 24-08-2019 18:45:00 30.6 C 36 % 13.83 C
803 24-08-2019 18:50:00 30.3 C 37 % 13.99 C
804 24-08-2019 18:55:00 30.3 C 39 % 14.8 C
805 24-08-2019 19:00:00 30.3 C 38 % 14.4 C
806 24-08-2019 19:05:00 30.3 C 44 % 16.68 C
807 24-08-2019 19:10:00 30.1 C 44 % 16.5 C
808 24-08-2019 19:15:00 29.8 C 50 % 18.25 C
809 24-08-2019 19:20:00 29.4 C 49 % 17.57 C
810 24-08-2019 19:25:00 28.9 C 49 % 17.11 C
811 24-08-2019 19:30:00 28.4 C 50 % 16.97 C
812 24-08-2019 19:35:00 27.9 C 51 % 16.83 C
813 24-08-2019 19:40:00 27.5 C 52 % 16.76 C
814 24-08-2019 19:45:00 27.1 C 53 % 16.7 C
815 24-08-2019 19:50:00 26.7 C 53 % 16.33 C
816 24-08-2019 19:55:00 26.4 C 54 % 16.34 C
817 24-08-2019 20:00:00 26.1 C 55 % 16.35 C
818 24-08-2019 20:05:00 25.7 C 56 % 16.26 C
819 24-08-2019 20:10:00 25.3 C 56 % 15.89 C
820 24-08-2019 20:15:00 24.9 C 57 % 15.8 C
821 24-08-2019 20:20:00 24.6 C 59 % 16.06 C
822 24-08-2019 20:25:00 24.3 C 59 % 15.78 C
823 24-08-2019 20:30:00 24 C 61 % 16.02 C
824 24-08-2019 20:35:00 23.7 C 61 % 15.73 C
825 24-08-2019 20:40:00 23.5 C 61 % 15.55 C
Sensor: Nr:Datum:Temp:Feuchte:Taupunkt:
Aussen-T/F 826 24-08-2019 20:45:00 23.3 C 62 % 15.61 C
827 24-08-2019 20:50:00 23.1 C 62 % 15.42 C
828 24-08-2019 20:55:00 23 C 62 % 15.33 C
829 24-08-2019 21:00:00 22.8 C 63 % 15.39 C
830 24-08-2019 21:05:00 22.7 C 64 % 15.54 C
831 24-08-2019 21:10:00 22.6 C 63 % 15.2 C
832 24-08-2019 21:15:00 22.4 C 65 % 15.5 C
833 24-08-2019 21:20:00 22.3 C 66 % 15.64 C
834 24-08-2019 21:25:00 22.1 C 65 % 15.21 C
835 24-08-2019 21:30:00 21.9 C 66 % 15.26 C
836 24-08-2019 21:35:00 21.8 C 66 % 15.17 C
837 24-08-2019 21:40:00 21.7 C 68 % 15.54 C
838 24-08-2019 21:45:00 21.6 C 69 % 15.67 C
839 24-08-2019 21:50:00 21.3 C 70 % 15.61 C
840 24-08-2019 21:55:00 21 C 70 % 15.32 C
841 24-08-2019 22:00:00 20.8 C 71 % 15.35 C
842 24-08-2019 22:05:00 20.6 C 72 % 15.38 C
843 24-08-2019 22:10:00 20.3 C 73 % 15.3 C
844 24-08-2019 22:15:00 20.1 C 73 % 15.11 C
845 24-08-2019 22:20:00 19.9 C 73 % 14.92 C
846 24-08-2019 22:25:00 19.8 C 74 % 15.03 C
847 24-08-2019 22:30:00 19.7 C 75 % 15.15 C
848 24-08-2019 22:35:00 19.6 C 75 % 15.05 C
849 24-08-2019 22:40:00 19.4 C 75 % 14.86 C
850 24-08-2019 22:45:00 19.2 C 76 % 14.87 C
Sensor: Nr:Datum:Temp:Feuchte:Taupunkt:
Aussen-T/F 851 24-08-2019 22:50:00 19.1 C 76 % 14.77 C
852 24-08-2019 22:55:00 18.9 C 76 % 14.58 C
853 24-08-2019 23:00:00 18.8 C 76 % 14.48 C
854 24-08-2019 23:05:00 18.7 C 77 % 14.59 C
855 24-08-2019 23:10:00 18.5 C 77 % 14.39 C
856 24-08-2019 23:15:00 18.4 C 77 % 14.3 C
857 24-08-2019 23:20:00 18.3 C 78 % 14.4 C
858 24-08-2019 23:25:00 18.2 C 78 % 14.3 C
859 24-08-2019 23:30:00 18.1 C 78 % 14.21 C
860 24-08-2019 23:35:00 18.1 C 79 % 14.4 C
861 24-08-2019 23:40:00 17.9 C 79 % 14.21 C
862 24-08-2019 23:45:00 17.8 C 80 % 14.31 C
863 24-08-2019 23:50:00 17.7 C 80 % 14.21 C
864 24-08-2019 23:55:00 17.6 C 81 % 14.3 C
865 25-08-2019 00:00:00 17.6 C 81 % 14.3 C
866 25-08-2019 00:05:00 17.5 C 81 % 14.2 C
867 25-08-2019 00:10:00 17.4 C 81 % 14.11 C
868 25-08-2019 00:15:00 17.4 C 82 % 14.3 C
869 25-08-2019 00:20:00 17.3 C 82 % 14.2 C
870 25-08-2019 00:25:00 17.3 C 82 % 14.2 C
871 25-08-2019 00:30:00 17.3 C 82 % 14.2 C
872 25-08-2019 00:35:00 17.3 C 82 % 14.2 C
873 25-08-2019 00:40:00 17.3 C 82 % 14.2 C
874 25-08-2019 00:45:00 17.3 C 82 % 14.2 C
875 25-08-2019 00:50:00 17.3 C 82 % 14.2 C
Sensor: Nr:Datum:Temp:Feuchte:Taupunkt:
Aussen-T/F 876 25-08-2019 00:55:00 17.3 C 82 % 14.2 C
877 25-08-2019 01:00:00 17.2 C 82 % 14.1 C
878 25-08-2019 01:05:00 17.2 C 82 % 14.1 C
879 25-08-2019 01:10:00 17.1 C 82 % 14 C
880 25-08-2019 01:15:00 17 C 82 % 13.91 C
881 25-08-2019 01:20:00 17 C 83 % 14.09 C
882 25-08-2019 01:25:00 17 C 83 % 14.09 C
883 25-08-2019 01:30:00 16.9 C 83 % 14 C
884 25-08-2019 01:35:00 16.9 C 83 % 14 C
885 25-08-2019 01:40:00 16.9 C 83 % 14 C
886 25-08-2019 01:45:00 16.8 C 83 % 13.9 C
887 25-08-2019 01:50:00 16.8 C 84 % 14.08 C
888 25-08-2019 01:55:00 16.8 C 83 % 13.9 C
889 25-08-2019 02:00:00 16.7 C 83 % 13.8 C
890 25-08-2019 02:05:00 16.6 C 84 % 13.89 C
891 25-08-2019 02:10:00 16.5 C 84 % 13.79 C
892 25-08-2019 02:15:00 16.4 C 85 % 13.87 C
893 25-08-2019 02:20:00 16.3 C 85 % 13.77 C
894 25-08-2019 02:25:00 16.2 C 85 % 13.68 C
895 25-08-2019 02:30:00 16.1 C 85 % 13.58 C
896 25-08-2019 02:35:00 16 C 86 % 13.66 C
897 25-08-2019 02:40:00 15.9 C 86 % 13.56 C
898 25-08-2019 02:45:00 15.8 C 86 % 13.46 C
899 25-08-2019 02:50:00 15.7 C 87 % 13.54 C
900 25-08-2019 02:55:00 15.7 C 87 % 13.54 C
Sensor: Nr:Datum:Temp:Feuchte:Taupunkt:
Aussen-T/F 901 25-08-2019 03:00:00 15.6 C 87 % 13.45 C
902 25-08-2019 03:05:00 15.6 C 87 % 13.45 C
903 25-08-2019 03:10:00 15.6 C 88 % 13.62 C
904 25-08-2019 03:15:00 15.5 C 88 % 13.52 C
905 25-08-2019 03:20:00 15.4 C 88 % 13.42 C
906 25-08-2019 03:25:00 15.3 C 88 % 13.33 C
907 25-08-2019 03:30:00 15.3 C 88 % 13.33 C
908 25-08-2019 03:35:00 15.4 C 89 % 13.6 C
909 25-08-2019 03:40:00 15.6 C 89 % 13.79 C
910 25-08-2019 03:45:00 15.7 C 88 % 13.72 C
911 25-08-2019 03:50:00 15.7 C 88 % 13.72 C
912 25-08-2019 03:55:00 15.7 C 88 % 13.72 C
913 25-08-2019 04:00:00 15.6 C 87 % 13.45 C
914 25-08-2019 04:05:00 15.5 C 88 % 13.52 C
915 25-08-2019 04:10:00 15.4 C 88 % 13.42 C
916 25-08-2019 04:15:00 15.3 C 88 % 13.33 C
917 25-08-2019 04:20:00 15.3 C 88 % 13.33 C
918 25-08-2019 04:25:00 15.2 C 88 % 13.23 C
919 25-08-2019 04:30:00 15.1 C 89 % 13.3 C
920 25-08-2019 04:35:00 15.1 C 89 % 13.3 C
921 25-08-2019 04:40:00 15 C 89 % 13.2 C
922 25-08-2019 04:45:00 15 C 89 % 13.2 C
923 25-08-2019 04:50:00 14.9 C 89 % 13.1 C
924 25-08-2019 04:55:00 14.9 C 89 % 13.1 C
925 25-08-2019 05:00:00 14.8 C 89 % 13.01 C
Sensor: Nr:Datum:Temp:Feuchte:Taupunkt:
Aussen-T/F 926 25-08-2019 05:05:00 14.8 C 89 % 13.01 C
927 25-08-2019 05:10:00 14.7 C 90 % 13.08 C
928 25-08-2019 05:15:00 14.7 C 90 % 13.08 C
929 25-08-2019 05:20:00 14.7 C 90 % 13.08 C
930 25-08-2019 05:25:00 14.6 C 90 % 12.98 C
931 25-08-2019 05:30:00 14.7 C 90 % 13.08 C
932 25-08-2019 05:35:00 14.7 C 90 % 13.08 C
933 25-08-2019 05:40:00 14.6 C 90 % 12.98 C
934 25-08-2019 05:45:00 14.6 C 90 % 12.98 C
935 25-08-2019 05:50:00 14.5 C 90 % 12.88 C
936 25-08-2019 05:55:00 14.5 C 90 % 12.88 C
937 25-08-2019 06:00:00 14.5 C 91 % 13.05 C
938 25-08-2019 06:05:00 14.5 C 91 % 13.05 C
939 25-08-2019 06:10:00 14.5 C 91 % 13.05 C
940 25-08-2019 06:15:00 14.5 C 91 % 13.05 C
941 25-08-2019 06:20:00 14.4 C 90 % 12.78 C
942 25-08-2019 06:25:00 14.3 C 90 % 12.68 C
943 25-08-2019 06:30:00 14.3 C 91 % 12.85 C
944 25-08-2019 06:35:00 14.4 C 91 % 12.95 C
945 25-08-2019 06:40:00 14.4 C 91 % 12.95 C
946 25-08-2019 06:45:00 14.4 C 91 % 12.95 C
947 25-08-2019 06:50:00 14.4 C 91 % 12.95 C
948 25-08-2019 06:55:00 14.4 C 91 % 12.95 C
949 25-08-2019 07:00:00 14.4 C 92 % 13.12 C
950 25-08-2019 07:05:00 14.6 C 92 % 13.32 C
Sensor: Nr:Datum:Temp:Feuchte:Taupunkt:
Aussen-T/F 951 25-08-2019 07:10:00 14.7 C 91 % 13.25 C
952 25-08-2019 07:15:00 14.7 C 91 % 13.25 C
953 25-08-2019 07:20:00 14.7 C 91 % 13.25 C
954 25-08-2019 07:25:00 14.8 C 91 % 13.35 C
955 25-08-2019 07:30:00 14.8 C 91 % 13.35 C
956 25-08-2019 07:35:00 14.8 C 92 % 13.51 C
957 25-08-2019 07:40:00 14.9 C 92 % 13.61 C
958 25-08-2019 07:45:00 15 C 92 % 13.71 C
959 25-08-2019 07:50:00 15.1 C 91 % 13.64 C
960 25-08-2019 07:55:00 15.2 C 91 % 13.74 C
961 25-08-2019 08:00:00 15.2 C 91 % 13.74 C
962 25-08-2019 08:05:00 15.3 C 91 % 13.84 C
963 25-08-2019 08:10:00 15.4 C 91 % 13.94 C
964 25-08-2019 08:15:00 15.6 C 91 % 14.14 C
965 25-08-2019 08:20:00 15.7 C 91 % 14.24 C
966 25-08-2019 08:25:00 15.8 C 90 % 14.16 C
967 25-08-2019 08:30:00 15.8 C 90 % 14.16 C
968 25-08-2019 08:35:00 16 C 90 % 14.36 C
969 25-08-2019 08:40:00 16.2 C 90 % 14.56 C
970 25-08-2019 08:45:00 16.3 C 91 % 14.83 C
971 25-08-2019 08:50:00 16.4 C 90 % 14.76 C
972 25-08-2019 08:55:00 16.4 C 90 % 14.76 C
973 25-08-2019 09:00:00 16.6 C 90 % 14.95 C
974 25-08-2019 09:05:00 16.7 C 90 % 15.05 C
975 25-08-2019 09:10:00 16.8 C 90 % 15.15 C
Sensor: Nr:Datum:Temp:Feuchte:Taupunkt:
Aussen-T/F 976 25-08-2019 09:15:00 16.9 C 90 % 15.25 C
977 25-08-2019 09:20:00 16.9 C 89 % 15.08 C
978 25-08-2019 09:25:00 17.1 C 89 % 15.27 C
979 25-08-2019 09:30:00 17.2 C 88 % 15.2 C
980 25-08-2019 09:35:00 17.3 C 87 % 15.12 C
981 25-08-2019 09:40:00 17.5 C 87 % 15.31 C
982 25-08-2019 09:45:00 17.7 C 87 % 15.51 C
983 25-08-2019 09:50:00 17.8 C 87 % 15.61 C
984 25-08-2019 09:55:00 17.9 C 86 % 15.53 C
985 25-08-2019 10:00:00 18 C 87 % 15.8 C
986 25-08-2019 10:05:00 18.2 C 86 % 15.82 C
987 25-08-2019 10:10:00 18.3 C 86 % 15.92 C
988 25-08-2019 10:15:00 18.4 C 85 % 15.83 C
989 25-08-2019 10:20:00 18.5 C 86 % 16.11 C
990 25-08-2019 10:25:00 18.6 C 85 % 16.03 C
991 25-08-2019 10:30:00 18.8 C 84 % 16.04 C
992 25-08-2019 10:35:00 18.9 C 85 % 16.32 C
993 25-08-2019 10:40:00 19.1 C 83 % 16.15 C
994 25-08-2019 10:45:00 19.3 C 83 % 16.34 C
995 25-08-2019 10:50:00 19.6 C 83 % 16.63 C
996 25-08-2019 10:55:00 19.7 C 83 % 16.73 C
997 25-08-2019 11:00:00 20 C 82 % 16.83 C
998 25-08-2019 11:05:00 20.3 C 81 % 16.93 C
999 25-08-2019 11:10:00 20.8 C 78 % 16.82 C
1000 25-08-2019 11:15:00 21.1 C 78 % 17.11 C
Sensor: Nr:Datum:Temp:Feuchte:Taupunkt:
Aussen-T/F 1001 25-08-2019 11:20:00 21.4 C 78 % 17.4 C
1002 25-08-2019 11:25:00 21.6 C 78 % 17.6 C
1003 25-08-2019 11:30:00 21.9 C 76 % 17.48 C
1004 25-08-2019 11:35:00 22.2 C 78 % 18.18 C
1005 25-08-2019 11:40:00 22.3 C 76 % 17.86 C
1006 25-08-2019 11:45:00 22.5 C 75 % 17.85 C
1007 25-08-2019 11:50:00 22.7 C 75 % 18.04 C
1008 25-08-2019 11:55:00 22.9 C 74 % 18.02 C
1009 25-08-2019 12:00:00 23.2 C 74 % 18.31 C
1010 25-08-2019 12:05:00 23.5 C 75 % 18.81 C
1011 25-08-2019 12:10:00 23.8 C 73 % 18.67 C
1012 25-08-2019 12:15:00 24 C 72 % 18.64 C
1013 25-08-2019 12:20:00 24.3 C 71 % 18.7 C
1014 25-08-2019 12:25:00 24.5 C 70 % 18.67 C
1015 25-08-2019 12:30:00 24.7 C 70 % 18.86 C
1016 25-08-2019 12:35:00 24.9 C 68 % 18.59 C
1017 25-08-2019 12:40:00 25.2 C 67 % 18.63 C
1018 25-08-2019 12:45:00 25.3 C 67 % 18.73 C
1019 25-08-2019 12:50:00 25.5 C 67 % 18.92 C
1020 25-08-2019 12:55:00 25.6 C 66 % 18.77 C
1021 25-08-2019 13:00:00 25.8 C 66 % 18.96 C
1022 25-08-2019 13:05:00 25.9 C 66 % 19.06 C
1023 25-08-2019 13:10:00 26.2 C 65 % 19.1 C
1024 25-08-2019 13:15:00 26.4 C 64 % 19.04 C
1025 25-08-2019 13:20:00 26.6 C 63 % 18.97 C
Sensor: Nr:Datum:Temp:Feuchte:Taupunkt:
Aussen-T/F 1026 25-08-2019 13:25:00 26.8 C 63 % 19.16 C
1027 25-08-2019 13:30:00 26.9 C 63 % 19.26 C
1028 25-08-2019 13:35:00 27.1 C 62 % 19.19 C
1029 25-08-2019 13:40:00 27.2 C 61 % 19.02 C
1030 25-08-2019 13:45:00 27.3 C 61 % 19.12 C
1031 25-08-2019 13:50:00 27.4 C 60 % 18.95 C
1032 25-08-2019 13:55:00 27.6 C 61 % 19.4 C
1033 25-08-2019 14:00:00 27.7 C 59 % 18.96 C
1034 25-08-2019 14:05:00 27.8 C 58 % 18.78 C
1035 25-08-2019 14:10:00 27.9 C 58 % 18.87 C
1036 25-08-2019 14:15:00 28.1 C 58 % 19.06 C
1037 25-08-2019 14:20:00 28.2 C 56 % 18.59 C
1038 25-08-2019 14:25:00 28.2 C 58 % 19.15 C
1039 25-08-2019 14:30:00 28.3 C 57 % 18.96 C
1040 25-08-2019 14:35:00 28.4 C 58 % 19.34 C
1041 25-08-2019 14:40:00 28.7 C 56 % 19.05 C
1042 25-08-2019 14:45:00 28.8 C 56 % 19.14 C
1043 25-08-2019 14:50:00 29.1 C 56 % 19.42 C
1044 25-08-2019 14:55:00 29.3 C 54 % 19.02 C
1045 25-08-2019 15:00:00 29.6 C 54 % 19.3 C
1046 25-08-2019 15:05:00 29.8 C 54 % 19.49 C
1047 25-08-2019 15:10:00 29.9 C 51 % 18.66 C
1048 25-08-2019 15:15:00 30.1 C 54 % 19.76 C
1049 25-08-2019 15:20:00 30.2 C 54 % 19.86 C
1050 25-08-2019 15:25:00 30.3 C 51 % 19.03 C
Sensor: Nr:Datum:Temp:Feuchte:Taupunkt:
Aussen-T/F 1051 25-08-2019 15:30:00 30.3 C 51 % 19.03 C
1052 25-08-2019 15:35:00 30.4 C 50 % 18.8 C
1053 25-08-2019 15:40:00 30.5 C 49 % 18.57 C
1054 25-08-2019 15:45:00 30.6 C 51 % 19.3 C
1055 25-08-2019 15:50:00 30.8 C 50 % 19.17 C
1056 25-08-2019 15:55:00 30.9 C 48 % 18.61 C
1057 25-08-2019 16:00:00 31.1 C 47 % 18.45 C
1058 25-08-2019 16:05:00 31.3 C 48 % 18.97 C
1059 25-08-2019 16:10:00 31.4 C 47 % 18.73 C
1060 25-08-2019 16:15:00 31.4 C 48 % 19.06 C
1061 25-08-2019 16:20:00 31.3 C 48 % 18.97 C
1062 25-08-2019 16:25:00 31.1 C 48 % 18.79 C
1063 25-08-2019 16:30:00 30.9 C 50 % 19.26 C
1064 25-08-2019 16:35:00 31 C 49 % 19.03 C
1065 25-08-2019 16:40:00 31.1 C 49 % 19.12 C
1066 25-08-2019 16:45:00 31.1 C 49 % 19.12 C
1067 25-08-2019 16:50:00 31.2 C 57 % 21.66 C
1068 25-08-2019 16:55:00 31.3 C 56 % 21.47 C
1069 25-08-2019 17:00:00 31.6 C 49 % 19.58 C
1070 25-08-2019 17:05:00 31.8 C 48 % 19.43 C
1071 25-08-2019 17:10:00 32 C 46 % 18.93 C
1072 25-08-2019 17:15:00 32.1 C 44 % 18.3 C
1073 25-08-2019 17:20:00 32.2 C 46 % 19.11 C
1074 25-08-2019 17:25:00 32.4 C 45 % 18.93 C
1075 25-08-2019 17:30:00 32.6 C 53 % 21.77 C
Sensor: Nr:Datum:Temp:Feuchte:Taupunkt:
Aussen-T/F 1076 25-08-2019 17:35:00 32.5 C 51 % 21.05 C
1077 25-08-2019 17:40:00 32.6 C 47 % 19.81 C
1078 25-08-2019 17:45:00 32.8 C 46 % 19.65 C
1079 25-08-2019 17:50:00 32.7 C 44 % 18.84 C
1080 25-08-2019 17:55:00 32.3 C 45 % 18.84 C
1081 25-08-2019 18:00:00 31.7 C 46 % 18.65 C
1082 25-08-2019 18:05:00 31.3 C 47 % 18.63 C
1083 25-08-2019 18:10:00 30.7 C 47 % 18.09 C
1084 25-08-2019 18:15:00 30.2 C 50 % 18.62 C
1085 25-08-2019 18:20:00 29.9 C 49 % 18.02 C
1086 25-08-2019 18:25:00 29.7 C 51 % 18.48 C
1087 25-08-2019 18:30:00 29.7 C 52 % 18.79 C
1088 25-08-2019 18:35:00 29.6 C 57 % 20.17 C
1089 25-08-2019 18:40:00 29.6 C 59 % 20.73 C
1090 25-08-2019 18:45:00 29.5 C 59 % 20.64 C
1091 25-08-2019 18:50:00 29.4 C 59 % 20.55 C
1092 25-08-2019 18:55:00 29.3 C 59 % 20.45 C
1093 25-08-2019 19:00:00 29 C 60 % 20.44 C
1094 25-08-2019 19:05:00 28.7 C 61 % 20.43 C
1095 25-08-2019 19:10:00 28.4 C 60 % 19.88 C
1096 25-08-2019 19:15:00 28.1 C 63 % 20.39 C
1097 25-08-2019 19:20:00 27.7 C 63 % 20.01 C
1098 25-08-2019 19:25:00 27.2 C 63 % 19.54 C
1099 25-08-2019 19:30:00 26.8 C 64 % 19.42 C
1100 25-08-2019 19:35:00 26.5 C 65 % 19.38 C
Sensor: Nr:Datum:Temp:Feuchte:Taupunkt:
Aussen-T/F 1101 25-08-2019 19:40:00 26.2 C 65 % 19.1 C
1102 25-08-2019 19:45:00 25.9 C 65 % 18.81 C
1103 25-08-2019 19:50:00 25.6 C 65 % 18.53 C
1104 25-08-2019 19:55:00 25.4 C 66 % 18.58 C
1105 25-08-2019 20:00:00 25.2 C 67 % 18.63 C
1106 25-08-2019 20:05:00 25.1 C 68 % 18.78 C
1107 25-08-2019 20:10:00 24.8 C 69 % 18.72 C
1108 25-08-2019 20:15:00 24.6 C 69 % 18.53 C
1109 25-08-2019 20:20:00 24.4 C 70 % 18.57 C
1110 25-08-2019 20:25:00 24.3 C 71 % 18.7 C
1111 25-08-2019 20:30:00 24.2 C 72 % 18.83 C
1112 25-08-2019 20:35:00 24 C 73 % 18.86 C
1113 25-08-2019 20:40:00 23.9 C 74 % 18.98 C
1114 25-08-2019 20:45:00 23.8 C 74 % 18.89 C
1115 25-08-2019 20:50:00 23.8 C 75 % 19.1 C
1116 25-08-2019 20:55:00 23.7 C 75 % 19 C
1117 25-08-2019 21:00:00 23.6 C 75 % 18.91 C
1118 25-08-2019 21:05:00 23.6 C 76 % 19.12 C
1119 25-08-2019 21:10:00 23.5 C 76 % 19.02 C
1120 25-08-2019 21:15:00 23.4 C 76 % 18.93 C
1121 25-08-2019 21:20:00 23.3 C 76 % 18.83 C
1122 25-08-2019 21:25:00 23.2 C 77 % 18.94 C
1123 25-08-2019 21:30:00 23 C 77 % 18.75 C
1124 25-08-2019 21:35:00 22.8 C 77 % 18.56 C
1125 25-08-2019 21:40:00 22.7 C 78 % 18.67 C
Sensor: Nr:Datum:Temp:Feuchte:Taupunkt:
Aussen-T/F 1126 25-08-2019 21:45:00 22.4 C 79 % 18.58 C
1127 25-08-2019 21:50:00 22.2 C 79 % 18.38 C
1128 25-08-2019 21:55:00 22.1 C 80 % 18.49 C
1129 25-08-2019 22:00:00 21.9 C 80 % 18.29 C
1130 25-08-2019 22:05:00 21.8 C 81 % 18.39 C
1131 25-08-2019 22:10:00 21.6 C 81 % 18.2 C
1132 25-08-2019 22:15:00 21.4 C 82 % 18.2 C
1133 25-08-2019 22:20:00 21.3 C 82 % 18.1 C
1134 25-08-2019 22:25:00 21.2 C 82 % 18 C
1135 25-08-2019 22:30:00 21.1 C 83 % 18.1 C
1136 25-08-2019 22:35:00 21 C 83 % 18 C
1137 25-08-2019 22:40:00 20.9 C 83 % 17.9 C
1138 25-08-2019 22:45:00 20.8 C 84 % 18 C
1139 25-08-2019 22:50:00 20.7 C 84 % 17.9 C
1140 25-08-2019 22:55:00 20.6 C 84 % 17.8 C
1141 25-08-2019 23:00:00 20.5 C 84 % 17.7 C
1142 25-08-2019 23:05:00 20.4 C 84 % 17.61 C
1143 25-08-2019 23:10:00 20.3 C 85 % 17.7 C
1144 25-08-2019 23:15:00 20.3 C 85 % 17.7 C
1145 25-08-2019 23:20:00 20.2 C 85 % 17.6 C
1146 25-08-2019 23:25:00 20.2 C 85 % 17.6 C
1147 25-08-2019 23:30:00 20.1 C 86 % 17.68 C
1148 25-08-2019 23:35:00 20 C 86 % 17.59 C
1149 25-08-2019 23:40:00 19.9 C 86 % 17.49 C
1150 25-08-2019 23:45:00 19.9 C 86 % 17.49 C
Sensor: Nr:Datum:Temp:Feuchte:Taupunkt:
Aussen-T/F 1151 25-08-2019 23:50:00 19.8 C 86 % 17.39 C
1152 25-08-2019 23:55:00 19.7 C 87 % 17.47 C
1153 26-08-2019 00:00:00 19.6 C 87 % 17.38 C
1154 26-08-2019 00:05:00 19.6 C 87 % 17.38 C
1155 26-08-2019 00:10:00 19.6 C 88 % 17.56 C
1156 26-08-2019 00:15:00 19.5 C 88 % 17.46 C
1157 26-08-2019 00:20:00 19.5 C 88 % 17.46 C
1158 26-08-2019 00:25:00 19.5 C 88 % 17.46 C
1159 26-08-2019 00:30:00 19.4 C 88 % 17.36 C
1160 26-08-2019 00:35:00 19.4 C 89 % 17.54 C
1161 26-08-2019 00:40:00 19.4 C 88 % 17.36 C
1162 26-08-2019 00:45:00 19.4 C 88 % 17.36 C
1163 26-08-2019 00:50:00 19.4 C 89 % 17.54 C
1164 26-08-2019 00:55:00 19.4 C 89 % 17.54 C
1165 26-08-2019 01:00:00 19.4 C 89 % 17.54 C
1166 26-08-2019 01:05:00 19.3 C 88 % 17.26 C
1167 26-08-2019 01:10:00 19.2 C 88 % 17.16 C
1168 26-08-2019 01:15:00 19.2 C 89 % 17.34 C
1169 26-08-2019 01:20:00 19.2 C 89 % 17.34 C
1170 26-08-2019 01:25:00 19.1 C 89 % 17.24 C
1171 26-08-2019 01:30:00 19.1 C 89 % 17.24 C
1172 26-08-2019 01:35:00 19.1 C 90 % 17.42 C
1173 26-08-2019 01:40:00 19.1 C 90 % 17.42 C
1174 26-08-2019 01:45:00 19.1 C 89 % 17.24 C
1175 26-08-2019 01:50:00 19 C 90 % 17.32 C
Sensor: Nr:Datum:Temp:Feuchte:Taupunkt:
Aussen-T/F 1176 26-08-2019 01:55:00 18.9 C 90 % 17.22 C
1177 26-08-2019 02:00:00 18.9 C 89 % 17.05 C
1178 26-08-2019 02:05:00 18.8 C 90 % 17.12 C
1179 26-08-2019 02:10:00 18.7 C 90 % 17.03 C
1180 26-08-2019 02:15:00 18.6 C 90 % 16.93 C
1181 26-08-2019 02:20:00 18.5 C 90 % 16.83 C
1182 26-08-2019 02:25:00 18.5 C 91 % 17 C
1183 26-08-2019 02:30:00 18.5 C 91 % 17 C
1184 26-08-2019 02:35:00 18.4 C 91 % 16.9 C
1185 26-08-2019 02:40:00 18.3 C 91 % 16.81 C
1186 26-08-2019 02:45:00 18.4 C 92 % 17.08 C
1187 26-08-2019 02:50:00 18.4 C 92 % 17.08 C
1188 26-08-2019 02:55:00 18.4 C 92 % 17.08 C
1189 26-08-2019 03:00:00 18.4 C 91 % 16.9 C
1190 26-08-2019 03:05:00 18.3 C 91 % 16.81 C
1191 26-08-2019 03:10:00 18.2 C 91 % 16.71 C
1192 26-08-2019 03:15:00 18.2 C 91 % 16.71 C
1193 26-08-2019 03:20:00 18.1 C 92 % 16.78 C
1194 26-08-2019 03:25:00 18 C 92 % 16.68 C
1195 26-08-2019 03:30:00 18 C 92 % 16.68 C
1196 26-08-2019 03:35:00 17.9 C 92 % 16.58 C
1197 26-08-2019 03:40:00 17.9 C 92 % 16.58 C
1198 26-08-2019 03:45:00 17.8 C 92 % 16.48 C
1199 26-08-2019 03:50:00 17.8 C 92 % 16.48 C
1200 26-08-2019 03:55:00 17.7 C 92 % 16.38 C
Sensor: Nr:Datum:Temp:Feuchte:Taupunkt:
Aussen-T/F 1201 26-08-2019 04:00:00 17.7 C 93 % 16.55 C
1202 26-08-2019 04:05:00 17.6 C 93 % 16.45 C
1203 26-08-2019 04:10:00 17.5 C 92 % 16.19 C
1204 26-08-2019 04:15:00 17.5 C 93 % 16.36 C
1205 26-08-2019 04:20:00 17.5 C 93 % 16.36 C
1206 26-08-2019 04:25:00 17.4 C 93 % 16.26 C
1207 26-08-2019 04:30:00 17.4 C 93 % 16.26 C
1208 26-08-2019 04:35:00 17.4 C 93 % 16.26 C
1209 26-08-2019 04:40:00 17.3 C 93 % 16.16 C
1210 26-08-2019 04:45:00 17.3 C 93 % 16.16 C
1211 26-08-2019 04:50:00 17.2 C 93 % 16.06 C
1212 26-08-2019 04:55:00 17.2 C 94 % 16.23 C
1213 26-08-2019 05:00:00 17.2 C 94 % 16.23 C
1214 26-08-2019 05:05:00 17.2 C 94 % 16.23 C
1215 26-08-2019 05:10:00 17.1 C 94 % 16.13 C
1216 26-08-2019 05:15:00 17.1 C 94 % 16.13 C
1217 26-08-2019 05:20:00 17.2 C 95 % 16.39 C
1218 26-08-2019 05:25:00 17.3 C 95 % 16.49 C
1219 26-08-2019 05:30:00 17.3 C 94 % 16.33 C
1220 26-08-2019 05:35:00 17.2 C 94 % 16.23 C
1221 26-08-2019 05:40:00 17.1 C 94 % 16.13 C
1222 26-08-2019 05:45:00 17 C 94 % 16.03 C
1223 26-08-2019 05:50:00 17 C 94 % 16.03 C
1224 26-08-2019 05:55:00 17 C 94 % 16.03 C
1225 26-08-2019 06:00:00 16.9 C 94 % 15.93 C
Sensor: Nr:Datum:Temp:Feuchte:Taupunkt:
Aussen-T/F 1226 26-08-2019 06:05:00 16.9 C 94 % 15.93 C
1227 26-08-2019 06:10:00 16.9 C 94 % 15.93 C
1228 26-08-2019 06:15:00 16.9 C 94 % 15.93 C
1229 26-08-2019 06:20:00 16.8 C 94 % 15.83 C
1230 26-08-2019 06:25:00 16.7 C 94 % 15.73 C
1231 26-08-2019 06:30:00 16.7 C 95 % 15.9 C
1232 26-08-2019 06:35:00 16.8 C 95 % 15.99 C
1233 26-08-2019 06:40:00 16.7 C 95 % 15.9 C
1234 26-08-2019 06:45:00 16.7 C 94 % 15.73 C
1235 26-08-2019 06:50:00 16.6 C 94 % 15.63 C
1236 26-08-2019 06:55:00 16.6 C 95 % 15.8 C
1237 26-08-2019 07:00:00 16.6 C 95 % 15.8 C
1238 26-08-2019 07:05:00 16.6 C 95 % 15.8 C
1239 26-08-2019 07:10:00 16.6 C 95 % 15.8 C
1240 26-08-2019 07:15:00 16.7 C 95 % 15.9 C
1241 26-08-2019 07:20:00 16.7 C 95 % 15.9 C
1242 26-08-2019 07:25:00 16.7 C 95 % 15.9 C
1243 26-08-2019 07:30:00 16.7 C 95 % 15.9 C
1244 26-08-2019 07:35:00 16.7 C 95 % 15.9 C
1245 26-08-2019 07:40:00 16.8 C 95 % 15.99 C
1246 26-08-2019 07:45:00 16.8 C 96 % 16.16 C
1247 26-08-2019 07:50:00 16.8 C 96 % 16.16 C
1248 26-08-2019 07:55:00 16.9 C 96 % 16.26 C
1249 26-08-2019 08:00:00 17.1 C 96 % 16.46 C
1250 26-08-2019 08:05:00 17.2 C 96 % 16.56 C
Sensor: Nr:Datum:Temp:Feuchte:Taupunkt:
Aussen-T/F 1251 26-08-2019 08:10:00 17.2 C 96 % 16.56 C
1252 26-08-2019 08:15:00 17.3 C 96 % 16.66 C
1253 26-08-2019 08:20:00 17.3 C 96 % 16.66 C
1254 26-08-2019 08:25:00 17.4 C 96 % 16.76 C
1255 26-08-2019 08:30:00 17.5 C 96 % 16.85 C
1256 26-08-2019 08:35:00 17.6 C 96 % 16.95 C
1257 26-08-2019 08:40:00 17.7 C 96 % 17.05 C
1258 26-08-2019 08:45:00 17.7 C 96 % 17.05 C
1259 26-08-2019 08:50:00 17.8 C 96 % 17.15 C
1260 26-08-2019 08:55:00 17.9 C 96 % 17.25 C
1261 26-08-2019 09:00:00 17.9 C 96 % 17.25 C
1262 26-08-2019 09:05:00 18.1 C 96 % 17.45 C
1263 26-08-2019 09:10:00 18.2 C 96 % 17.55 C
1264 26-08-2019 09:15:00 18.3 C 96 % 17.65 C
1265 26-08-2019 09:20:00 18.4 C 96 % 17.75 C
1266 26-08-2019 09:25:00 18.5 C 96 % 17.85 C
1267 26-08-2019 09:30:00 18.6 C 96 % 17.95 C
1268 26-08-2019 09:35:00 18.7 C 96 % 18.05 C
1269 26-08-2019 09:40:00 18.8 C 96 % 18.15 C
1270 26-08-2019 09:45:00 18.9 C 96 % 18.25 C
1271 26-08-2019 09:50:00 19 C 95 % 18.18 C
1272 26-08-2019 09:55:00 19.2 C 95 % 18.38 C
1273 26-08-2019 10:00:00 19.3 C 95 % 18.48 C
1274 26-08-2019 10:05:00 19.4 C 95 % 18.58 C
1275 26-08-2019 10:10:00 19.4 C 94 % 18.41 C
Sensor: Nr:Datum:Temp:Feuchte:Taupunkt:
Aussen-T/F 1276 26-08-2019 10:15:00 19.6 C 94 % 18.61 C
1277 26-08-2019 10:20:00 19.8 C 93 % 18.63 C
1278 26-08-2019 10:25:00 20 C 93 % 18.83 C
1279 26-08-2019 10:30:00 20.2 C 92 % 18.86 C
1280 26-08-2019 10:35:00 20.4 C 92 % 19.06 C
1281 26-08-2019 10:40:00 20.7 C 91 % 19.18 C
1282 26-08-2019 10:45:00 20.8 C 91 % 19.28 C
1283 26-08-2019 10:50:00 21 C 90 % 19.3 C
1284 26-08-2019 10:55:00 21.3 C 89 % 19.41 C
1285 26-08-2019 11:00:00 21.6 C 87 % 19.34 C
1286 26-08-2019 11:05:00 21.9 C 87 % 19.64 C
1287 26-08-2019 11:10:00 22.2 C 86 % 19.75 C
1288 26-08-2019 11:15:00 22.4 C 86 % 19.94 C
1289 26-08-2019 11:20:00 22.6 C 85 % 19.95 C
1290 26-08-2019 11:25:00 22.8 C 84 % 19.95 C
1291 26-08-2019 11:30:00 23.1 C 83 % 20.05 C
1292 26-08-2019 11:35:00 23.3 C 83 % 20.25 C
1293 26-08-2019 11:40:00 23.5 C 82 % 20.25 C
1294 26-08-2019 11:45:00 23.7 C 81 % 20.24 C
1295 26-08-2019 11:50:00 24 C 80 % 20.33 C
1296 26-08-2019 11:55:00 24.3 C 80 % 20.63 C
1297 26-08-2019 12:00:00 24.5 C 78 % 20.41 C
1298 26-08-2019 12:05:00 24.7 C 78 % 20.6 C
1299 26-08-2019 12:10:00 24.9 C 77 % 20.59 C
1300 26-08-2019 12:15:00 25.2 C 75 % 20.45 C
Sensor: Nr:Datum:Temp:Feuchte:Taupunkt:
Aussen-T/F 1301 26-08-2019 12:20:00 25.4 C 75 % 20.64 C
1302 26-08-2019 12:25:00 25.6 C 72 % 20.17 C
1303 26-08-2019 12:30:00 25.8 C 72 % 20.37 C
1304 26-08-2019 12:35:00 26 C 71 % 20.33 C
1305 26-08-2019 12:40:00 26.2 C 70 % 20.29 C
1306 26-08-2019 12:45:00 26.5 C 70 % 20.58 C
1307 26-08-2019 12:50:00 26.8 C 69 % 20.63 C
1308 26-08-2019 12:55:00 26.9 C 67 % 20.25 C
1309 26-08-2019 13:00:00 27.2 C 67 % 20.54 C
1310 26-08-2019 13:05:00 27.4 C 65 % 20.23 C
1311 26-08-2019 13:10:00 27.6 C 65 % 20.42 C
1312 26-08-2019 13:15:00 27.8 C 63 % 20.11 C
1313 26-08-2019 13:20:00 28 C 63 % 20.29 C
1314 26-08-2019 13:25:00 28.2 C 61 % 19.96 C
1315 26-08-2019 13:30:00 28.5 C 58 % 19.43 C
1316 26-08-2019 13:35:00 28.7 C 58 % 19.62 C
1317 26-08-2019 13:40:00 28.8 C 56 % 19.14 C
1318 26-08-2019 13:45:00 28.9 C 57 % 19.52 C
1319 26-08-2019 13:50:00 29.2 C 56 % 19.52 C
1320 26-08-2019 13:55:00 29.3 C 55 % 19.32 C
1321 26-08-2019 14:00:00 29.4 C 54 % 19.12 C
1322 26-08-2019 14:05:00 29.6 C 55 % 19.6 C
1323 26-08-2019 14:10:00 29.7 C 53 % 19.09 C
1324 26-08-2019 14:15:00 29.7 C 52 % 18.79 C
1325 26-08-2019 14:20:00 29.8 C 52 % 18.88 C
Sensor: Nr:Datum:Temp:Feuchte:Taupunkt:
Aussen-T/F 1326 26-08-2019 14:25:00 29.9 C 53 % 19.28 C
1327 26-08-2019 14:30:00 30 C 52 % 19.07 C
1328 26-08-2019 14:35:00 30.1 C 53 % 19.46 C
1329 26-08-2019 14:40:00 30.2 C 53 % 19.56 C
1330 26-08-2019 14:45:00 30.4 C 53 % 19.74 C
1331 26-08-2019 14:50:00 30.6 C 52 % 19.62 C
1332 26-08-2019 14:55:00 30.8 C 50 % 19.17 C
1333 26-08-2019 15:00:00 30.9 C 50 % 19.26 C
1334 26-08-2019 15:05:00 31.2 C 48 % 18.88 C
1335 26-08-2019 15:10:00 31.4 C 46 % 18.38 C
1336 26-08-2019 15:15:00 31.6 C 46 % 18.56 C
1337 26-08-2019 15:20:00 31.6 C 48 % 19.24 C
1338 26-08-2019 15:25:00 31.5 C 47 % 18.82 C
1339 26-08-2019 15:30:00 31.2 C 49 % 19.21 C
1340 26-08-2019 15:35:00 30.9 C 50 % 19.26 C
1341 26-08-2019 15:40:00 30.6 C 54 % 20.23 C
1342 26-08-2019 15:45:00 30.2 C 57 % 20.73 C
1343 26-08-2019 15:50:00 29.8 C 55 % 19.78 C
1344 26-08-2019 15:55:00 29.4 C 56 % 19.7 C
1345 26-08-2019 16:00:00 29.2 C 57 % 19.8 C
1346 26-08-2019 16:05:00 29 C 58 % 19.9 C
1347 26-08-2019 16:10:00 28.8 C 58 % 19.71 C
1348 26-08-2019 16:15:00 28.7 C 58 % 19.62 C
1349 26-08-2019 16:20:00 28.6 C 59 % 19.8 C
1350 26-08-2019 16:25:00 28.6 C 59 % 19.8 C
Sensor: Nr:Datum:Temp:Feuchte:Taupunkt:
Aussen-T/F 1351 26-08-2019 16:30:00 28.4 C 58 % 19.34 C
1352 26-08-2019 16:35:00 28.3 C 58 % 19.24 C
1353 26-08-2019 16:40:00 28.3 C 61 % 20.06 C
1354 26-08-2019 16:45:00 28.3 C 63 % 20.58 C
1355 26-08-2019 16:50:00 28.2 C 60 % 19.69 C
1356 26-08-2019 16:55:00 28.2 C 61 % 19.96 C
1357 26-08-2019 17:00:00 28.2 C 66 % 21.24 C
1358 26-08-2019 17:05:00 28.2 C 67 % 21.49 C
1359 26-08-2019 17:10:00 28.1 C 67 % 21.39 C
1360 26-08-2019 17:15:00 28 C 67 % 21.3 C
1361 26-08-2019 17:20:00 27.8 C 66 % 20.86 C
1362 26-08-2019 17:25:00 27.5 C 66 % 20.58 C
1363 26-08-2019 17:30:00 27.3 C 67 % 20.63 C
1364 26-08-2019 17:35:00 27.2 C 68 % 20.78 C
1365 26-08-2019 17:40:00 27.1 C 68 % 20.68 C
1366 26-08-2019 17:45:00 26.9 C 68 % 20.49 C
1367 26-08-2019 17:50:00 26.8 C 68 % 20.4 C
1368 26-08-2019 17:55:00 26.6 C 69 % 20.44 C
1369 26-08-2019 18:00:00 26.5 C 69 % 20.35 C
1370 26-08-2019 18:05:00 26.4 C 71 % 20.71 C
1371 26-08-2019 18:10:00 26.3 C 71 % 20.62 C
1372 26-08-2019 18:15:00 26.3 C 72 % 20.85 C
1373 26-08-2019 18:20:00 26.4 C 72 % 20.94 C
1374 26-08-2019 18:25:00 26.6 C 72 % 21.13 C
1375 26-08-2019 18:30:00 26.8 C 72 % 21.32 C
Sensor: Nr:Datum:Temp:Feuchte:Taupunkt:
Aussen-T/F 1376 26-08-2019 18:35:00 27.1 C 70 % 21.15 C
1377 26-08-2019 18:40:00 27.6 C 69 % 21.39 C
1378 26-08-2019 18:45:00 28 C 69 % 21.78 C
1379 26-08-2019 18:50:00 28.4 C 68 % 21.92 C
1380 26-08-2019 18:55:00 28.9 C 66 % 21.9 C
1381 26-08-2019 19:00:00 28.9 C 65 % 21.65 C
1382 26-08-2019 19:05:00 28.9 C 65 % 21.65 C
1383 26-08-2019 19:10:00 28.8 C 65 % 21.56 C
1384 26-08-2019 19:15:00 28.6 C 65 % 21.37 C
1385 26-08-2019 19:20:00 28.4 C 65 % 21.18 C
1386 26-08-2019 19:25:00 28.3 C 66 % 21.33 C
1387 26-08-2019 19:30:00 28.1 C 65 % 20.9 C
1388 26-08-2019 19:35:00 27.9 C 66 % 20.96 C
1389 26-08-2019 19:40:00 27.7 C 67 % 21.01 C
1390 26-08-2019 19:45:00 27.3 C 67 % 20.63 C
1391 26-08-2019 19:50:00 27.1 C 67 % 20.44 C
1392 26-08-2019 19:55:00 26.8 C 69 % 20.63 C
1393 26-08-2019 20:00:00 26.4 C 69 % 20.25 C
1394 26-08-2019 20:05:00 26.2 C 70 % 20.29 C
1395 26-08-2019 20:10:00 25.7 C 71 % 20.04 C
1396 26-08-2019 20:15:00 25.4 C 72 % 19.98 C
1397 26-08-2019 20:20:00 25.1 C 73 % 19.92 C
1398 26-08-2019 20:25:00 24.7 C 73 % 19.53 C
1399 26-08-2019 20:30:00 24.3 C 74 % 19.37 C
1400 26-08-2019 20:35:00 24.1 C 75 % 19.39 C
Sensor: Nr:Datum:Temp:Feuchte:Taupunkt:
Aussen-T/F 1401 26-08-2019 20:40:00 23.9 C 75 % 19.2 C
1402 26-08-2019 20:45:00 23.7 C 76 % 19.22 C
1403 26-08-2019 20:50:00 23.5 C 77 % 19.23 C
1404 26-08-2019 20:55:00 23.3 C 78 % 19.25 C
1405 26-08-2019 21:00:00 23.1 C 78 % 19.05 C
1406 26-08-2019 21:05:00 23 C 79 % 19.16 C
1407 26-08-2019 21:10:00 22.9 C 79 % 19.06 C
1408 26-08-2019 21:15:00 22.8 C 80 % 19.17 C
1409 26-08-2019 21:20:00 22.7 C 80 % 19.07 C
1410 26-08-2019 21:25:00 22.5 C 80 % 18.88 C
1411 26-08-2019 21:30:00 22.3 C 81 % 18.88 C
1412 26-08-2019 21:35:00 22.2 C 81 % 18.78 C
1413 26-08-2019 21:40:00 22.1 C 81 % 18.69 C
1414 26-08-2019 21:45:00 22.1 C 82 % 18.88 C
1415 26-08-2019 21:50:00 21.9 C 82 % 18.69 C
1416 26-08-2019 21:55:00 21.8 C 83 % 18.78 C
1417 26-08-2019 22:00:00 21.7 C 83 % 18.69 C
1418 26-08-2019 22:05:00 21.5 C 84 % 18.68 C
1419 26-08-2019 22:10:00 21.4 C 84 % 18.58 C
1420 26-08-2019 22:15:00 21.3 C 84 % 18.49 C
1421 26-08-2019 22:20:00 21.2 C 84 % 18.39 C
1422 26-08-2019 22:25:00 21.1 C 85 % 18.48 C
1423 26-08-2019 22:30:00 21 C 85 % 18.38 C
1424 26-08-2019 22:35:00 20.9 C 85 % 18.28 C
1425 26-08-2019 22:40:00 20.8 C 85 % 18.18 C
Sensor: Nr:Datum:Temp:Feuchte:Taupunkt:
Aussen-T/F 1426 26-08-2019 22:45:00 20.8 C 86 % 18.37 C
1427 26-08-2019 22:50:00 20.7 C 86 % 18.27 C
1428 26-08-2019 22:55:00 20.7 C 86 % 18.27 C
1429 26-08-2019 23:00:00 20.6 C 87 % 18.36 C
1430 26-08-2019 23:05:00 20.5 C 87 % 18.26 C
1431 26-08-2019 23:10:00 20.4 C 87 % 18.16 C
1432 26-08-2019 23:15:00 20.3 C 87 % 18.06 C
1433 26-08-2019 23:20:00 20.3 C 87 % 18.06 C
1434 26-08-2019 23:25:00 20.2 C 87 % 17.97 C
1435 26-08-2019 23:30:00 20.1 C 88 % 18.05 C
1436 26-08-2019 23:35:00 20 C 88 % 17.95 C
1437 26-08-2019 23:40:00 19.9 C 89 % 18.03 C
1438 26-08-2019 23:45:00 19.9 C 89 % 18.03 C
1439 26-08-2019 23:50:00 20 C 89 % 18.13 C
1440 26-08-2019 23:55:00 19.9 C 89 % 18.03 C
1441 27-08-2019 00:00:00 19.9 C 89 % 18.03 C
1442 27-08-2019 00:05:00 19.8 C 89 % 17.93 C
1443 27-08-2019 00:10:00 19.7 C 89 % 17.84 C
1444 27-08-2019 00:15:00 19.6 C 89 % 17.74 C
1445 27-08-2019 00:20:00 19.5 C 89 % 17.64 C
1446 27-08-2019 00:25:00 19.4 C 90 % 17.72 C
1447 27-08-2019 00:30:00 19.3 C 90 % 17.62 C
1448 27-08-2019 00:35:00 19.2 C 90 % 17.52 C
1449 27-08-2019 00:40:00 19.2 C 90 % 17.52 C
1450 27-08-2019 00:45:00 19.1 C 91 % 17.6 C
Sensor: Nr:Datum:Temp:Feuchte:Taupunkt:
Aussen-T/F 1451 27-08-2019 00:50:00 19.1 C 91 % 17.6 C
1452 27-08-2019 00:55:00 19.1 C 92 % 17.77 C
1453 27-08-2019 01:00:00 19.2 C 92 % 17.87 C
1454 27-08-2019 01:05:00 19.2 C 92 % 17.87 C
1455 27-08-2019 01:10:00 19.2 C 92 % 17.87 C
1456 27-08-2019 01:15:00 19.1 C 92 % 17.77 C
1457 27-08-2019 01:20:00 19.1 C 92 % 17.77 C
1458 27-08-2019 01:25:00 19.1 C 92 % 17.77 C
1459 27-08-2019 01:30:00 19.1 C 92 % 17.77 C
1460 27-08-2019 01:35:00 19 C 92 % 17.67 C
1461 27-08-2019 01:40:00 18.9 C 92 % 17.57 C
1462 27-08-2019 01:45:00 18.8 C 92 % 17.47 C
1463 27-08-2019 01:50:00 18.8 C 92 % 17.47 C
1464 27-08-2019 01:55:00 18.7 C 92 % 17.37 C
1465 27-08-2019 02:00:00 18.7 C 92 % 17.37 C
1466 27-08-2019 02:05:00 18.6 C 92 % 17.27 C
1467 27-08-2019 02:10:00 18.5 C 93 % 17.35 C
1468 27-08-2019 02:15:00 18.5 C 93 % 17.35 C
1469 27-08-2019 02:20:00 18.5 C 93 % 17.35 C
1470 27-08-2019 02:25:00 18.4 C 93 % 17.25 C
1471 27-08-2019 02:30:00 18.4 C 93 % 17.25 C
1472 27-08-2019 02:35:00 18.3 C 93 % 17.15 C
1473 27-08-2019 02:40:00 18.3 C 93 % 17.15 C
1474 27-08-2019 02:45:00 18.2 C 93 % 17.05 C
1475 27-08-2019 02:50:00 18.2 C 93 % 17.05 C
Sensor: Nr:Datum:Temp:Feuchte:Taupunkt:
Aussen-T/F 1476 27-08-2019 02:55:00 18.1 C 93 % 16.95 C
1477 27-08-2019 03:00:00 18.1 C 94 % 17.12 C
1478 27-08-2019 03:05:00 18.1 C 93 % 16.95 C
1479 27-08-2019 03:10:00 17.9 C 94 % 16.92 C
1480 27-08-2019 03:15:00 17.9 C 94 % 16.92 C
1481 27-08-2019 03:20:00 17.8 C 94 % 16.82 C
1482 27-08-2019 03:25:00 17.8 C 94 % 16.82 C
1483 27-08-2019 03:30:00 17.9 C 94 % 16.92 C
1484 27-08-2019 03:35:00 17.9 C 94 % 16.92 C
1485 27-08-2019 03:40:00 17.9 C 94 % 16.92 C
1486 27-08-2019 03:45:00 17.9 C 94 % 16.92 C
1487 27-08-2019 03:50:00 17.9 C 95 % 17.09 C
1488 27-08-2019 03:55:00 17.9 C 95 % 17.09 C
1489 27-08-2019 04:00:00 17.9 C 95 % 17.09 C
1490 27-08-2019 04:05:00 17.8 C 94 % 16.82 C
1491 27-08-2019 04:10:00 17.8 C 94 % 16.82 C
1492 27-08-2019 04:15:00 17.7 C 94 % 16.72 C
1493 27-08-2019 04:20:00 17.7 C 94 % 16.72 C
1494 27-08-2019 04:25:00 17.6 C 94 % 16.62 C
1495 27-08-2019 04:30:00 17.5 C 94 % 16.52 C
1496 27-08-2019 04:35:00 17.4 C 95 % 16.59 C
1497 27-08-2019 04:40:00 17.4 C 94 % 16.42 C
1498 27-08-2019 04:45:00 17.4 C 95 % 16.59 C
1499 27-08-2019 04:50:00 17.3 C 94 % 16.33 C
1500 27-08-2019 04:55:00 17.2 C 94 % 16.23 C
Sensor: Nr:Datum:Temp:Feuchte:Taupunkt:
Aussen-T/F 1501 27-08-2019 05:00:00 17.2 C 95 % 16.39 C
1502 27-08-2019 05:05:00 17.2 C 95 % 16.39 C
1503 27-08-2019 05:10:00 17.1 C 95 % 16.29 C
1504 27-08-2019 05:15:00 17.1 C 95 % 16.29 C
1505 27-08-2019 05:20:00 17.1 C 95 % 16.29 C
1506 27-08-2019 05:25:00 17.2 C 95 % 16.39 C
1507 27-08-2019 05:30:00 17.3 C 95 % 16.49 C
1508 27-08-2019 05:35:00 17.3 C 95 % 16.49 C
1509 27-08-2019 05:40:00 17.2 C 95 % 16.39 C
1510 27-08-2019 05:45:00 17.1 C 95 % 16.29 C
1511 27-08-2019 05:50:00 17.1 C 95 % 16.29 C
1512 27-08-2019 05:55:00 17 C 95 % 16.19 C
1513 27-08-2019 06:00:00 17 C 95 % 16.19 C
1514 27-08-2019 06:05:00 16.9 C 95 % 16.09 C
1515 27-08-2019 06:10:00 16.8 C 95 % 15.99 C
1516 27-08-2019 06:15:00 16.8 C 95 % 15.99 C
1517 27-08-2019 06:20:00 16.8 C 95 % 15.99 C
1518 27-08-2019 06:25:00 16.9 C 96 % 16.26 C
1519 27-08-2019 06:30:00 16.8 C 96 % 16.16 C
1520 27-08-2019 06:35:00 16.7 C 95 % 15.9 C
1521 27-08-2019 06:40:00 16.7 C 95 % 15.9 C
1522 27-08-2019 06:45:00 16.7 C 95 % 15.9 C
1523 27-08-2019 06:50:00 16.7 C 96 % 16.06 C
1524 27-08-2019 06:55:00 16.7 C 96 % 16.06 C
1525 27-08-2019 07:00:00 16.9 C 96 % 16.26 C
Sensor: Nr:Datum:Temp:Feuchte:Taupunkt:
Aussen-T/F 1526 27-08-2019 07:05:00 16.9 C 96 % 16.26 C
1527 27-08-2019 07:10:00 16.9 C 96 % 16.26 C
1528 27-08-2019 07:15:00 16.9 C 96 % 16.26 C
1529 27-08-2019 07:20:00 16.9 C 96 % 16.26 C
1530 27-08-2019 07:25:00 16.9 C 96 % 16.26 C
1531 27-08-2019 07:30:00 16.8 C 96 % 16.16 C
1532 27-08-2019 07:35:00 16.8 C 96 % 16.16 C
1533 27-08-2019 07:40:00 16.8 C 96 % 16.16 C
1534 27-08-2019 07:45:00 16.8 C 96 % 16.16 C
1535 27-08-2019 07:50:00 16.8 C 96 % 16.16 C
1536 27-08-2019 07:55:00 16.8 C 96 % 16.16 C
1537 27-08-2019 08:00:00 16.9 C 96 % 16.26 C
1538 27-08-2019 08:05:00 17 C 96 % 16.36 C
1539 27-08-2019 08:10:00 17.1 C 96 % 16.46 C
1540 27-08-2019 08:15:00 17.2 C 96 % 16.56 C
1541 27-08-2019 08:20:00 17.2 C 96 % 16.56 C
1542 27-08-2019 08:25:00 17.2 C 96 % 16.56 C
1543 27-08-2019 08:30:00 17.3 C 97 % 16.82 C
1544 27-08-2019 08:35:00 17.4 C 97 % 16.92 C
1545 27-08-2019 08:40:00 17.5 C 97 % 17.02 C
1546 27-08-2019 08:45:00 17.6 C 97 % 17.12 C
1547 27-08-2019 08:50:00 17.7 C 97 % 17.22 C
1548 27-08-2019 08:55:00 17.8 C 97 % 17.32 C
1549 27-08-2019 09:00:00 17.8 C 97 % 17.32 C
1550 27-08-2019 09:05:00 17.9 C 97 % 17.42 C
Sensor: Nr:Datum:Temp:Feuchte:Taupunkt:
Aussen-T/F 1551 27-08-2019 09:10:00 18.1 C 97 % 17.62 C
1552 27-08-2019 09:15:00 18.2 C 97 % 17.72 C
1553 27-08-2019 09:20:00 18.2 C 97 % 17.72 C
1554 27-08-2019 09:25:00 18.3 C 97 % 17.82 C
1555 27-08-2019 09:30:00 18.4 C 97 % 17.91 C
1556 27-08-2019 09:35:00 18.6 C 97 % 18.11 C
1557 27-08-2019 09:40:00 18.7 C 97 % 18.21 C
1558 27-08-2019 09:45:00 18.8 C 97 % 18.31 C
1559 27-08-2019 09:50:00 18.9 C 97 % 18.41 C
1560 27-08-2019 09:55:00 18.9 C 97 % 18.41 C
1561 27-08-2019 10:00:00 19.1 C 97 % 18.61 C
1562 27-08-2019 10:05:00 19.2 C 97 % 18.71 C
1563 27-08-2019 10:10:00 19.3 C 97 % 18.81 C
1564 27-08-2019 10:15:00 19.4 C 96 % 18.75 C
1565 27-08-2019 10:20:00 19.5 C 97 % 19.01 C
1566 27-08-2019 10:25:00 19.7 C 96 % 19.04 C
1567 27-08-2019 10:30:00 19.8 C 96 % 19.14 C
1568 27-08-2019 10:35:00 19.9 C 96 % 19.24 C
1569 27-08-2019 10:40:00 20.1 C 96 % 19.44 C
1570 27-08-2019 10:45:00 20.3 C 95 % 19.47 C
1571 27-08-2019 10:50:00 20.4 C 95 % 19.57 C
1572 27-08-2019 10:55:00 20.7 C 95 % 19.87 C
1573 27-08-2019 11:00:00 20.9 C 94 % 19.9 C
1574 27-08-2019 11:05:00 21.2 C 94 % 20.19 C
1575 27-08-2019 11:10:00 21.4 C 93 % 20.22 C
Sensor: Nr:Datum:Temp:Feuchte:Taupunkt:
Aussen-T/F 1576 27-08-2019 11:15:00 21.7 C 92 % 20.34 C
1577 27-08-2019 11:20:00 21.9 C 92 % 20.54 C
1578 27-08-2019 11:25:00 22.2 C 91 % 20.66 C
1579 27-08-2019 11:30:00 22.4 C 89 % 20.5 C
1580 27-08-2019 11:35:00 22.7 C 88 % 20.61 C
1581 27-08-2019 11:40:00 22.9 C 88 % 20.81 C
1582 27-08-2019 11:45:00 23.1 C 88 % 21 C
1583 27-08-2019 11:50:00 23.3 C 87 % 21.01 C
1584 27-08-2019 11:55:00 23.6 C 87 % 21.31 C
1585 27-08-2019 12:00:00 23.8 C 86 % 21.31 C
1586 27-08-2019 12:05:00 24 C 84 % 21.13 C
1587 27-08-2019 12:10:00 24.2 C 83 % 21.13 C
1588 27-08-2019 12:15:00 24.6 C 81 % 21.12 C
1589 27-08-2019 12:20:00 24.9 C 79 % 21 C
1590 27-08-2019 12:25:00 25.2 C 80 % 21.5 C
1591 27-08-2019 12:30:00 25.4 C 73 % 20.21 C
1592 27-08-2019 12:35:00 25.8 C 76 % 21.24 C
1593 27-08-2019 12:40:00 26.2 C 69 % 20.06 C
1594 27-08-2019 12:45:00 26.7 C 68 % 20.3 C
1595 27-08-2019 12:50:00 26.9 C 65 % 19.76 C
1596 27-08-2019 12:55:00 27.3 C 71 % 21.58 C
1597 27-08-2019 13:00:00 27.4 C 65 % 20.23 C
1598 27-08-2019 13:05:00 27.8 C 62 % 19.85 C
1599 27-08-2019 13:10:00 28.2 C 59 % 19.42 C
1600 27-08-2019 13:15:00 28.6 C 57 % 19.24 C
Sensor: Nr:Datum:Temp:Feuchte:Taupunkt:
Aussen-T/F 1601 27-08-2019 13:20:00 29 C 57 % 19.62 C
1602 27-08-2019 13:25:00 29.3 C 58 % 20.18 C
1603 27-08-2019 13:30:00 29.5 C 57 % 20.08 C
1604 27-08-2019 13:35:00 29.6 C 57 % 20.17 C
1605 27-08-2019 13:40:00 29.6 C 56 % 19.89 C
1606 27-08-2019 13:45:00 29.6 C 54 % 19.3 C
1607 27-08-2019 13:50:00 29.6 C 51 % 18.39 C
1608 27-08-2019 13:55:00 29.7 C 51 % 18.48 C
1609 27-08-2019 14:00:00 29.9 C 53 % 19.28 C
1610 27-08-2019 14:05:00 30 C 51 % 18.75 C
1611 27-08-2019 14:10:00 30.1 C 51 % 18.85 C
1612 27-08-2019 14:15:00 30.2 C 49 % 18.3 C
1613 27-08-2019 14:20:00 30.3 C 49 % 18.39 C
1614 27-08-2019 14:25:00 30.4 C 50 % 18.8 C
1615 27-08-2019 14:30:00 30.6 C 48 % 18.33 C
1616 27-08-2019 14:35:00 30.8 C 49 % 18.85 C
1617 27-08-2019 14:40:00 30.9 C 47 % 18.27 C
1618 27-08-2019 14:45:00 31 C 48 % 18.7 C
1619 27-08-2019 14:50:00 31.1 C 51 % 19.76 C
1620 27-08-2019 14:55:00 31.2 C 45 % 17.85 C
1621 27-08-2019 15:00:00 31.4 C 45 % 18.03 C
1622 27-08-2019 15:05:00 31.4 C 43 % 17.31 C
1623 27-08-2019 15:10:00 31.6 C 45 % 18.21 C
1624 27-08-2019 15:15:00 31.6 C 45 % 18.21 C
1625 27-08-2019 15:20:00 31.7 C 46 % 18.65 C
Sensor: Nr:Datum:Temp:Feuchte:Taupunkt:
Aussen-T/F 1626 27-08-2019 15:25:00 31.8 C 42 % 17.3 C
1627 27-08-2019 15:30:00 31.9 C 42 % 17.39 C
1628 27-08-2019 15:35:00 32.1 C 42 % 17.57 C
1629 27-08-2019 15:40:00 32.2 C 41 % 17.27 C
1630 27-08-2019 15:45:00 32.2 C 42 % 17.65 C
1631 27-08-2019 15:50:00 32.3 C 41 % 17.36 C
1632 27-08-2019 15:55:00 32.5 C 43 % 18.3 C
1633 27-08-2019 16:00:00 32.6 C 40 % 17.24 C
1634 27-08-2019 16:05:00 32.6 C 42 % 18.01 C
1635 27-08-2019 16:10:00 32.7 C 42 % 18.1 C
1636 27-08-2019 16:15:00 32.8 C 41 % 17.81 C
1637 27-08-2019 16:20:00 33 C 45 % 19.48 C
1638 27-08-2019 16:25:00 33.2 C 41 % 18.17 C
1639 27-08-2019 16:30:00 33.3 C 41 % 18.25 C
1640 27-08-2019 16:35:00 33.3 C 40 % 17.86 C
1641 27-08-2019 16:40:00 33.5 C 45 % 19.93 C
1642 27-08-2019 16:45:00 33.7 C 43 % 19.37 C
1643 27-08-2019 16:50:00 33.9 C 42 % 19.18 C
1644 27-08-2019 16:55:00 34.2 C 38 % 17.84 C
1645 27-08-2019 17:00:00 34.3 C 44 % 20.28 C
1646 27-08-2019 17:05:00 34.3 C 38 % 17.93 C
1647 27-08-2019 17:10:00 34.2 C 38 % 17.84 C
1648 27-08-2019 17:15:00 33.9 C 40 % 18.4 C
1649 27-08-2019 17:20:00 33.6 C 47 % 20.72 C
1650 27-08-2019 17:25:00 33.1 C 47 % 20.27 C
Sensor: Nr:Datum:Temp:Feuchte:Taupunkt:
Aussen-T/F 1651 27-08-2019 17:30:00 32.4 C 49 % 20.31 C
1652 27-08-2019 17:35:00 31.6 C 51 % 20.22 C
1653 27-08-2019 17:40:00 30.9 C 53 % 20.2 C
1654 27-08-2019 17:45:00 30.3 C 54 % 19.95 C
1655 27-08-2019 17:50:00 29.7 C 54 % 19.39 C
1656 27-08-2019 17:55:00 29.2 C 55 % 19.23 C
1657 27-08-2019 18:00:00 28.7 C 56 % 19.05 C
1658 27-08-2019 18:05:00 28.4 C 57 % 19.06 C
1659 27-08-2019 18:10:00 28.2 C 59 % 19.42 C
1660 27-08-2019 18:15:00 28.3 C 61 % 20.06 C
1661 27-08-2019 18:20:00 28.7 C 62 % 20.69 C
1662 27-08-2019 18:25:00 29.2 C 61 % 20.9 C
1663 27-08-2019 18:30:00 29.9 C 57 % 20.45 C
1664 27-08-2019 18:35:00 30.5 C 50 % 18.9 C
1665 27-08-2019 18:40:00 30.9 C 55 % 20.8 C
1666 27-08-2019 18:45:00 30.9 C 55 % 20.8 C
1667 27-08-2019 18:50:00 30.7 C 55 % 20.62 C
1668 27-08-2019 18:55:00 30.3 C 57 % 20.83 C
1669 27-08-2019 19:00:00 30 C 57 % 20.55 C
1670 27-08-2019 19:05:00 29.6 C 57 % 20.17 C
1671 27-08-2019 19:10:00 29.1 C 55 % 19.13 C
1672 27-08-2019 19:15:00 28.9 C 53 % 18.36 C
1673 27-08-2019 19:20:00 28.8 C 56 % 19.14 C
1674 27-08-2019 19:25:00 28.4 C 59 % 19.61 C
1675 27-08-2019 19:30:00 27.7 C 65 % 20.52 C
Sensor: Nr:Datum:Temp:Feuchte:Taupunkt:
Aussen-T/F 1676 27-08-2019 19:35:00 27.1 C 69 % 20.92 C
1677 27-08-2019 19:40:00 26.4 C 71 % 20.71 C
1678 27-08-2019 19:45:00 25.9 C 72 % 20.46 C
1679 27-08-2019 19:50:00 25.5 C 75 % 20.74 C
1680 27-08-2019 19:55:00 25 C 77 % 20.68 C
1681 27-08-2019 20:00:00 24.7 C 80 % 21.01 C
1682 27-08-2019 20:05:00 24.6 C 81 % 21.12 C
1683 27-08-2019 20:10:00 24.3 C 81 % 20.83 C
1684 27-08-2019 20:15:00 24.1 C 80 % 20.43 C
1685 27-08-2019 20:20:00 23.9 C 81 % 20.44 C
1686 27-08-2019 20:25:00 23.6 C 81 % 20.15 C
1687 27-08-2019 20:30:00 23.3 C 82 % 20.05 C
1688 27-08-2019 20:35:00 23.1 C 82 % 19.86 C
1689 27-08-2019 20:40:00 22.8 C 83 % 19.76 C
1690 27-08-2019 20:45:00 22.7 C 83 % 19.66 C
1691 27-08-2019 20:50:00 22.6 C 84 % 19.76 C
1692 27-08-2019 20:55:00 22.4 C 84 % 19.56 C
1693 27-08-2019 21:00:00 22.3 C 84 % 19.46 C
1694 27-08-2019 21:05:00 22.2 C 83 % 19.17 C
1695 27-08-2019 21:10:00 22.1 C 84 % 19.27 C
1696 27-08-2019 21:15:00 22.2 C 86 % 19.75 C
1697 27-08-2019 21:20:00 22.2 C 86 % 19.75 C
1698 27-08-2019 21:25:00 22.3 C 86 % 19.84 C
1699 27-08-2019 21:30:00 22.2 C 85 % 19.56 C
1700 27-08-2019 21:35:00 22.2 C 84 % 19.37 C
Sensor: Nr:Datum:Temp:Feuchte:Taupunkt:
Aussen-T/F 1701 27-08-2019 21:40:00 22 C 84 % 19.17 C
1702 27-08-2019 21:45:00 21.9 C 85 % 19.26 C
1703 27-08-2019 21:50:00 21.8 C 84 % 18.97 C
1704 27-08-2019 21:55:00 21.7 C 84 % 18.88 C
1705 27-08-2019 22:00:00 21.6 C 84 % 18.78 C
1706 27-08-2019 22:05:00 21.4 C 85 % 18.77 C
1707 27-08-2019 22:10:00 21.3 C 86 % 18.86 C
1708 27-08-2019 22:15:00 21.4 C 88 % 19.33 C
1709 27-08-2019 22:20:00 21.3 C 87 % 19.05 C
1710 27-08-2019 22:25:00 21.2 C 86 % 18.76 C
1711 27-08-2019 22:30:00 21.1 C 86 % 18.67 C
1712 27-08-2019 22:35:00 20.9 C 86 % 18.47 C
1713 27-08-2019 22:40:00 20.9 C 87 % 18.65 C
1714 27-08-2019 22:45:00 20.9 C 87 % 18.65 C
1715 27-08-2019 22:50:00 20.9 C 88 % 18.84 C
1716 27-08-2019 22:55:00 20.8 C 87 % 18.56 C
1717 27-08-2019 23:00:00 20.8 C 87 % 18.56 C
1718 27-08-2019 23:05:00 20.7 C 88 % 18.64 C
1719 27-08-2019 23:10:00 20.7 C 88 % 18.64 C
1720 27-08-2019 23:15:00 20.6 C 88 % 18.54 C
1721 27-08-2019 23:20:00 20.5 C 88 % 18.44 C
1722 27-08-2019 23:25:00 20.5 C 89 % 18.62 C
1723 27-08-2019 23:30:00 20.5 C 89 % 18.62 C
1724 27-08-2019 23:35:00 20.4 C 88 % 18.34 C
1725 27-08-2019 23:40:00 20.3 C 88 % 18.25 C
Sensor: Nr:Datum:Temp:Feuchte:Taupunkt:
Aussen-T/F 1726 27-08-2019 23:45:00 20.2 C 88 % 18.15 C
1727 27-08-2019 23:50:00 20.1 C 88 % 18.05 C
1728 27-08-2019 23:55:00 19.9 C 89 % 18.03 C
1729 28-08-2019 00:00:00 19.9 C 89 % 18.03 C
1730 28-08-2019 00:05:00 20 C 90 % 18.31 C
1731 28-08-2019 00:10:00 20.1 C 90 % 18.41 C
1732 28-08-2019 00:15:00 20.1 C 90 % 18.41 C
1733 28-08-2019 00:20:00 19.9 C 89 % 18.03 C
1734 28-08-2019 00:25:00 19.9 C 90 % 18.21 C
1735 28-08-2019 00:30:00 19.9 C 90 % 18.21 C
1736 28-08-2019 00:35:00 19.8 C 90 % 18.11 C
1737 28-08-2019 00:40:00 19.8 C 90 % 18.11 C
1738 28-08-2019 00:45:00 19.8 C 91 % 18.29 C
1739 28-08-2019 00:50:00 19.8 C 91 % 18.29 C
1740 28-08-2019 00:55:00 19.8 C 91 % 18.29 C
1741 28-08-2019 01:00:00 19.7 C 90 % 18.01 C
1742 28-08-2019 01:05:00 19.6 C 91 % 18.09 C
1743 28-08-2019 01:10:00 19.6 C 91 % 18.09 C
1744 28-08-2019 01:15:00 19.5 C 91 % 17.99 C
1745 28-08-2019 01:20:00 19.5 C 92 % 18.17 C
1746 28-08-2019 01:25:00 19.6 C 92 % 18.26 C
1747 28-08-2019 01:30:00 19.6 C 92 % 18.26 C
1748 28-08-2019 01:35:00 19.6 C 92 % 18.26 C
1749 28-08-2019 01:40:00 19.7 C 93 % 18.54 C
1750 28-08-2019 01:45:00 19.7 C 93 % 18.54 C
Sensor: Nr:Datum:Temp:Feuchte:Taupunkt:
Aussen-T/F 1751 28-08-2019 01:50:00 19.7 C 92 % 18.36 C
1752 28-08-2019 01:55:00 19.6 C 92 % 18.26 C
1753 28-08-2019 02:00:00 19.5 C 92 % 18.17 C
1754 28-08-2019 02:05:00 19.4 C 92 % 18.07 C
1755 28-08-2019 02:10:00 19.4 C 92 % 18.07 C
1756 28-08-2019 02:15:00 19.3 C 92 % 17.97 C
1757 28-08-2019 02:20:00 19.3 C 93 % 18.14 C
1758 28-08-2019 02:25:00 19.3 C 93 % 18.14 C
1759 28-08-2019 02:30:00 19.3 C 93 % 18.14 C
1760 28-08-2019 02:35:00 19.2 C 93 % 18.04 C
1761 28-08-2019 02:40:00 19.2 C 93 % 18.04 C
1762 28-08-2019 02:45:00 19.1 C 93 % 17.94 C
1763 28-08-2019 02:50:00 19 C 93 % 17.84 C
1764 28-08-2019 02:55:00 18.9 C 93 % 17.74 C
1765 28-08-2019 03:00:00 18.8 C 93 % 17.64 C
1766 28-08-2019 03:05:00 18.8 C 93 % 17.64 C
1767 28-08-2019 03:10:00 18.7 C 93 % 17.54 C
1768 28-08-2019 03:15:00 18.7 C 93 % 17.54 C
1769 28-08-2019 03:20:00 18.7 C 94 % 17.71 C
1770 28-08-2019 03:25:00 18.7 C 94 % 17.71 C
1771 28-08-2019 03:30:00 18.7 C 93 % 17.54 C
1772 28-08-2019 03:35:00 18.6 C 93 % 17.45 C
1773 28-08-2019 03:40:00 18.6 C 94 % 17.62 C
1774 28-08-2019 03:45:00 18.8 C 94 % 17.81 C
1775 28-08-2019 03:50:00 18.8 C 94 % 17.81 C
Sensor: Nr:Datum:Temp:Feuchte:Taupunkt:
Aussen-T/F 1776 28-08-2019 03:55:00 18.7 C 94 % 17.71 C
1777 28-08-2019 04:00:00 18.7 C 94 % 17.71 C
1778 28-08-2019 04:05:00 18.6 C 94 % 17.62 C
1779 28-08-2019 04:10:00 18.6 C 94 % 17.62 C
1780 28-08-2019 04:15:00 18.5 C 94 % 17.52 C
1781 28-08-2019 04:20:00 18.4 C 94 % 17.42 C
1782 28-08-2019 04:25:00 18.3 C 93 % 17.15 C
1783 28-08-2019 04:30:00 18.2 C 94 % 17.22 C
1784 28-08-2019 04:35:00 18.2 C 94 % 17.22 C
1785 28-08-2019 04:40:00 18.1 C 94 % 17.12 C
1786 28-08-2019 04:45:00 18.1 C 94 % 17.12 C
1787 28-08-2019 04:50:00 18.1 C 94 % 17.12 C
1788 28-08-2019 04:55:00 18.2 C 94 % 17.22 C
1789 28-08-2019 05:00:00 18.1 C 94 % 17.12 C
1790 28-08-2019 05:05:00 18.1 C 94 % 17.12 C
1791 28-08-2019 05:10:00 18.1 C 94 % 17.12 C
1792 28-08-2019 05:15:00 18.1 C 94 % 17.12 C
1793 28-08-2019 05:20:00 18 C 94 % 17.02 C
1794 28-08-2019 05:25:00 17.9 C 94 % 16.92 C
1795 28-08-2019 05:30:00 17.8 C 94 % 16.82 C
1796 28-08-2019 05:35:00 17.9 C 95 % 17.09 C
1797 28-08-2019 05:40:00 17.9 C 95 % 17.09 C
1798 28-08-2019 05:45:00 17.9 C 95 % 17.09 C
1799 28-08-2019 05:50:00 17.9 C 95 % 17.09 C
1800 28-08-2019 05:55:00 17.9 C 95 % 17.09 C
Sensor: Nr:Datum:Temp:Feuchte:Taupunkt:
Aussen-T/F 1801 28-08-2019 06:00:00 17.9 C 95 % 17.09 C
1802 28-08-2019 06:05:00 17.9 C 95 % 17.09 C
1803 28-08-2019 06:10:00 18 C 95 % 17.19 C
1804 28-08-2019 06:15:00 18.2 C 96 % 17.55 C
1805 28-08-2019 06:20:00 18.3 C 95 % 17.48 C
1806 28-08-2019 06:25:00 18.2 C 95 % 17.39 C
1807 28-08-2019 06:30:00 18.2 C 95 % 17.39 C
1808 28-08-2019 06:35:00 18.1 C 95 % 17.29 C
1809 28-08-2019 06:40:00 18 C 95 % 17.19 C
1810 28-08-2019 06:45:00 17.8 C 95 % 16.99 C
1811 28-08-2019 06:50:00 17.8 C 95 % 16.99 C
1812 28-08-2019 06:55:00 17.8 C 95 % 16.99 C
1813 28-08-2019 07:00:00 17.8 C 95 % 16.99 C
1814 28-08-2019 07:05:00 17.8 C 95 % 16.99 C
1815 28-08-2019 07:10:00 17.8 C 95 % 16.99 C
1816 28-08-2019 07:15:00 17.9 C 95 % 17.09 C
1817 28-08-2019 07:20:00 17.9 C 96 % 17.25 C
1818 28-08-2019 07:25:00 17.9 C 95 % 17.09 C
1819 28-08-2019 07:30:00 17.8 C 95 % 16.99 C
1820 28-08-2019 07:35:00 17.8 C 95 % 16.99 C
1821 28-08-2019 07:40:00 17.8 C 95 % 16.99 C
1822 28-08-2019 07:45:00 17.8 C 95 % 16.99 C
1823 28-08-2019 07:50:00 17.9 C 96 % 17.25 C
1824 28-08-2019 07:55:00 18.1 C 96 % 17.45 C
1825 28-08-2019 08:00:00 18.2 C 96 % 17.55 C
Sensor: Nr:Datum:Temp:Feuchte:Taupunkt:
Aussen-T/F 1826 28-08-2019 08:05:00 18.3 C 96 % 17.65 C
1827 28-08-2019 08:10:00 18.4 C 96 % 17.75 C
1828 28-08-2019 08:15:00 18.5 C 96 % 17.85 C
1829 28-08-2019 08:20:00 18.6 C 96 % 17.95 C
1830 28-08-2019 08:25:00 18.7 C 96 % 18.05 C
1831 28-08-2019 08:30:00 18.7 C 96 % 18.05 C
1832 28-08-2019 08:35:00 18.8 C 96 % 18.15 C
1833 28-08-2019 08:40:00 18.8 C 96 % 18.15 C
1834 28-08-2019 08:45:00 18.8 C 95 % 17.98 C
1835 28-08-2019 08:50:00 18.9 C 95 % 18.08 C
1836 28-08-2019 08:55:00 19 C 95 % 18.18 C
1837 28-08-2019 09:00:00 19.1 C 95 % 18.28 C
1838 28-08-2019 09:05:00 19.1 C 95 % 18.28 C
1839 28-08-2019 09:10:00 19.2 C 94 % 18.21 C
1840 28-08-2019 09:15:00 19.3 C 94 % 18.31 C
1841 28-08-2019 09:20:00 19.4 C 94 % 18.41 C
1842 28-08-2019 09:25:00 19.6 C 94 % 18.61 C
1843 28-08-2019 09:30:00 19.7 C 94 % 18.71 C
1844 28-08-2019 09:35:00 19.9 C 93 % 18.73 C
1845 28-08-2019 09:40:00 20.1 C 94 % 19.1 C
1846 28-08-2019 09:45:00 20.3 C 92 % 18.96 C
1847 28-08-2019 09:50:00 20.6 C 91 % 19.08 C
1848 28-08-2019 09:55:00 20.8 C 89 % 18.92 C
1849 28-08-2019 10:00:00 21.1 C 88 % 19.03 C
1850 28-08-2019 10:05:00 21.3 C 85 % 18.67 C
Sensor: Nr:Datum:Temp:Feuchte:Taupunkt:
Aussen-T/F 1851 28-08-2019 10:10:00 21.7 C 82 % 18.49 C
1852 28-08-2019 10:15:00 22.2 C 80 % 18.58 C
1853 28-08-2019 10:20:00 22.5 C 78 % 18.47 C
1854 28-08-2019 10:25:00 22.7 C 77 % 18.46 C
1855 28-08-2019 10:30:00 22.8 C 75 % 18.14 C
1856 28-08-2019 10:35:00 22.9 C 75 % 18.23 C
1857 28-08-2019 10:40:00 22.9 C 74 % 18.02 C
1858 28-08-2019 10:45:00 23 C 73 % 17.9 C
1859 28-08-2019 10:50:00 23.1 C 73 % 17.99 C
1860 28-08-2019 10:55:00 23.2 C 73 % 18.09 C
1861 28-08-2019 11:00:00 23.4 C 73 % 18.28 C
1862 28-08-2019 11:05:00 23.6 C 73 % 18.48 C
1863 28-08-2019 11:10:00 23.7 C 72 % 18.35 C
1864 28-08-2019 11:15:00 23.8 C 71 % 18.22 C
1865 28-08-2019 11:20:00 23.9 C 72 % 18.54 C
1866 28-08-2019 11:25:00 24.1 C 72 % 18.73 C
1867 28-08-2019 11:30:00 24.2 C 71 % 18.61 C
1868 28-08-2019 11:35:00 24.2 C 71 % 18.61 C
1869 28-08-2019 11:40:00 24.2 C 70 % 18.38 C
1870 28-08-2019 11:45:00 24.2 C 71 % 18.61 C
1871 28-08-2019 11:50:00 24.2 C 71 % 18.61 C
1872 28-08-2019 11:55:00 24.2 C 73 % 19.05 C
1873 28-08-2019 12:00:00 24.2 C 75 % 19.49 C
1874 28-08-2019 12:05:00 24.2 C 76 % 19.7 C
1875 28-08-2019 12:10:00 24.2 C 77 % 19.91 C
Sensor: Nr:Datum:Temp:Feuchte:Taupunkt:
Aussen-T/F 1876 28-08-2019 12:15:00 24.1 C 76 % 19.6 C
1877 28-08-2019 12:20:00 24.1 C 73 % 18.96 C
1878 28-08-2019 12:25:00 24.1 C 72 % 18.73 C
1879 28-08-2019 12:30:00 24.3 C 69 % 18.25 C
1880 28-08-2019 12:35:00 24.6 C 69 % 18.53 C
1881 28-08-2019 12:40:00 24.8 C 68 % 18.49 C
1882 28-08-2019 12:45:00 24.9 C 66 % 18.11 C
1883 28-08-2019 12:50:00 25.1 C 65 % 18.06 C
1884 28-08-2019 12:55:00 25.3 C 64 % 18 C
1885 28-08-2019 13:00:00 25.4 C 64 % 18.09 C
1886 28-08-2019 13:05:00 25.5 C 63 % 17.94 C
1887 28-08-2019 13:10:00 25.6 C 63 % 18.03 C
1888 28-08-2019 13:15:00 25.7 C 63 % 18.13 C
1889 28-08-2019 13:20:00 25.8 C 61 % 17.71 C
1890 28-08-2019 13:25:00 26 C 61 % 17.9 C
1891 28-08-2019 13:30:00 26.3 C 58 % 17.38 C
1892 28-08-2019 13:35:00 26.8 C 56 % 17.29 C
1893 28-08-2019 13:40:00 27.3 C 56 % 17.75 C
1894 28-08-2019 13:45:00 27.8 C 55 % 17.93 C
1895 28-08-2019 13:50:00 28.1 C 54 % 17.92 C
1896 28-08-2019 13:55:00 28.2 C 52 % 17.41 C
1897 28-08-2019 14:00:00 28.4 C 52 % 17.59 C
1898 28-08-2019 14:05:00 28.7 C 52 % 17.87 C
1899 28-08-2019 14:10:00 28.8 C 53 % 18.26 C
1900 28-08-2019 14:15:00 29 C 52 % 18.15 C
Sensor: Nr:Datum:Temp:Feuchte:Taupunkt:
Aussen-T/F 1901 28-08-2019 14:20:00 29.3 C 50 % 17.8 C
1902 28-08-2019 14:25:00 29.4 C 52 % 18.51 C
1903 28-08-2019 14:30:00 29.6 C 49 % 17.75 C
1904 28-08-2019 14:35:00 29.6 C 51 % 18.39 C
1905 28-08-2019 14:40:00 29.8 C 50 % 18.25 C
1906 28-08-2019 14:45:00 30.1 C 49 % 18.21 C
1907 28-08-2019 14:50:00 30.3 C 47 % 17.73 C
1908 28-08-2019 14:55:00 30.3 C 47 % 17.73 C
1909 28-08-2019 15:00:00 30.2 C 47 % 17.64 C
1910 28-08-2019 15:05:00 30.2 C 50 % 18.62 C
1911 28-08-2019 15:10:00 30.2 C 44 % 16.59 C
1912 28-08-2019 15:15:00 30.1 C 44 % 16.5 C
1913 28-08-2019 15:20:00 30 C 44 % 16.41 C
1914 28-08-2019 15:25:00 30.1 C 43 % 16.14 C
1915 28-08-2019 15:30:00 30.3 C 43 % 16.32 C
1916 28-08-2019 15:35:00 30.4 C 42 % 16.04 C
1917 28-08-2019 15:40:00 30.6 C 44 % 16.95 C
1918 28-08-2019 15:45:00 30.7 C 44 % 17.04 C
1919 28-08-2019 15:50:00 30.7 C 43 % 16.68 C
1920 28-08-2019 15:55:00 30.8 C 43 % 16.77 C
1921 28-08-2019 16:00:00 30.9 C 43 % 16.86 C
1922 28-08-2019 16:05:00 31.1 C 42 % 16.67 C
1923 28-08-2019 16:10:00 31.3 C 41 % 16.47 C
1924 28-08-2019 16:15:00 31.5 C 39 % 15.86 C
1925 28-08-2019 16:20:00 31.6 C 40 % 16.35 C
Sensor: Nr:Datum:Temp:Feuchte:Taupunkt:
Aussen-T/F 1926 28-08-2019 16:25:00 31.7 C 41 % 16.83 C
1927 28-08-2019 16:30:00 31.8 C 40 % 16.53 C
1928 28-08-2019 16:35:00 31.8 C 41 % 16.92 C
1929 28-08-2019 16:40:00 31.8 C 43 % 17.67 C
1930 28-08-2019 16:45:00 31.8 C 41 % 16.92 C
1931 28-08-2019 16:50:00 31.8 C 42 % 17.3 C
1932 28-08-2019 16:55:00 31.6 C 43 % 17.49 C
1933 28-08-2019 17:00:00 31.4 C 42 % 16.94 C
1934 28-08-2019 17:05:00 31.3 C 44 % 17.58 C
1935 28-08-2019 17:10:00 31.4 C 43 % 17.31 C
1936 28-08-2019 17:15:00 31.6 C 46 % 18.56 C
1937 28-08-2019 17:20:00 31.8 C 42 % 17.3 C
1938 28-08-2019 17:25:00 31.9 C 43 % 17.76 C
1939 28-08-2019 17:30:00 31.8 C 42 % 17.3 C
1940 28-08-2019 17:35:00 31.9 C 40 % 16.62 C
1941 28-08-2019 17:40:00 32 C 42 % 17.48 C
1942 28-08-2019 17:45:00 32.1 C 41 % 17.18 C
1943 28-08-2019 17:50:00 32.2 C 40 % 16.88 C
1944 28-08-2019 17:55:00 32.3 C 39 % 16.57 C
1945 28-08-2019 18:00:00 32.3 C 40 % 16.97 C
1946 28-08-2019 18:05:00 32.2 C 40 % 16.88 C
1947 28-08-2019 18:10:00 32 C 44 % 18.21 C
1948 28-08-2019 18:15:00 31.9 C 47 % 19.18 C
1949 28-08-2019 18:20:00 31.9 C 41 % 17.01 C
1950 28-08-2019 18:25:00 31.4 C 42 % 16.94 C
Sensor: Nr:Datum:Temp:Feuchte:Taupunkt:
Aussen-T/F 1951 28-08-2019 18:30:00 31.1 C 47 % 18.45 C
1952 28-08-2019 18:35:00 30.8 C 47 % 18.18 C
1953 28-08-2019 18:40:00 30.4 C 51 % 19.12 C
1954 28-08-2019 18:45:00 30.2 C 50 % 18.62 C
1955 28-08-2019 18:50:00 30.1 C 51 % 18.85 C
1956 28-08-2019 18:55:00 29.9 C 49 % 18.02 C
1957 28-08-2019 19:00:00 29.7 C 48 % 17.51 C
1958 28-08-2019 19:05:00 29.3 C 51 % 18.11 C
1959 28-08-2019 19:10:00 28.9 C 52 % 18.05 C
1960 28-08-2019 19:15:00 28.6 C 51 % 17.47 C
1961 28-08-2019 19:20:00 28.2 C 52 % 17.41 C
1962 28-08-2019 19:25:00 27.8 C 52 % 17.04 C
1963 28-08-2019 19:30:00 27.6 C 51 % 16.55 C
1964 28-08-2019 19:35:00 27.3 C 55 % 17.47 C
1965 28-08-2019 19:40:00 27.1 C 52 % 16.4 C
1966 28-08-2019 19:45:00 26.9 C 54 % 16.81 C
1967 28-08-2019 19:50:00 26.7 C 54 % 16.62 C
1968 28-08-2019 19:55:00 26.4 C 54 % 16.34 C
1969 28-08-2019 20:00:00 26.3 C 55 % 16.54 C
1970 28-08-2019 20:05:00 26.2 C 55 % 16.45 C
1971 28-08-2019 20:10:00 26 C 56 % 16.54 C
1972 28-08-2019 20:15:00 25.9 C 55 % 16.17 C
1973 28-08-2019 20:20:00 25.8 C 55 % 16.07 C
1974 28-08-2019 20:25:00 25.7 C 56 % 16.26 C
1975 28-08-2019 20:30:00 25.5 C 57 % 16.36 C
Sensor: Nr:Datum:Temp:Feuchte:Taupunkt:
Aussen-T/F 1976 28-08-2019 20:35:00 25.4 C 56 % 15.99 C
1977 28-08-2019 20:40:00 25.3 C 58 % 16.44 C
1978 28-08-2019 20:45:00 25.1 C 58 % 16.26 C
1979 28-08-2019 20:50:00 25 C 59 % 16.43 C
1980 28-08-2019 20:55:00 24.9 C 59 % 16.34 C
1981 28-08-2019 21:00:00 24.8 C 58 % 15.98 C
1982 28-08-2019 21:05:00 24.7 C 60 % 16.41 C
1983 28-08-2019 21:10:00 24.6 C 61 % 16.58 C
1984 28-08-2019 21:15:00 24.5 C 62 % 16.74 C
1985 28-08-2019 21:20:00 24.3 C 61 % 16.3 C
1986 28-08-2019 21:25:00 24.3 C 62 % 16.55 C
1987 28-08-2019 21:30:00 24.2 C 61 % 16.2 C
1988 28-08-2019 21:35:00 24.1 C 63 % 16.62 C
1989 28-08-2019 21:40:00 24 C 65 % 17.01 C
1990 28-08-2019 21:45:00 23.8 C 65 % 16.83 C
1991 28-08-2019 21:50:00 23.7 C 65 % 16.73 C
1992 28-08-2019 21:55:00 23.4 C 67 % 16.92 C
1993 28-08-2019 22:00:00 23.2 C 66 % 16.5 C
1994 28-08-2019 22:05:00 22.9 C 67 % 16.45 C
1995 28-08-2019 22:10:00 22.7 C 66 % 16.02 C
1996 28-08-2019 22:15:00 22.6 C 68 % 16.39 C
1997 28-08-2019 22:20:00 22.6 C 70 % 16.85 C
1998 28-08-2019 22:25:00 22.4 C 71 % 16.88 C
1999 28-08-2019 22:30:00 22.3 C 71 % 16.79 C
2000 28-08-2019 22:35:00 22.3 C 71 % 16.79 C
Sensor: Nr:Datum:Temp:Feuchte:Taupunkt:
Aussen-T/F 2001 28-08-2019 22:40:00 22.2 C 72 % 16.91 C
2002 28-08-2019 22:45:00 22.1 C 73 % 17.03 C
2003 28-08-2019 22:50:00 22 C 73 % 16.94 C
2004 28-08-2019 22:55:00 21.9 C 73 % 16.84 C
2005 28-08-2019 23:00:00 21.8 C 72 % 16.53 C
2006 28-08-2019 23:05:00 21.7 C 73 % 16.65 C
2007 28-08-2019 23:10:00 21.6 C 73 % 16.55 C
2008 28-08-2019 23:15:00 21.6 C 74 % 16.77 C
2009 28-08-2019 23:20:00 21.4 C 74 % 16.57 C
2010 28-08-2019 23:25:00 21.3 C 74 % 16.48 C
2011 28-08-2019 23:30:00 21.3 C 75 % 16.69 C
2012 28-08-2019 23:35:00 21.2 C 75 % 16.59 C
2013 28-08-2019 23:40:00 21.2 C 75 % 16.59 C
2014 28-08-2019 23:45:00 21.2 C 76 % 16.8 C
2015 28-08-2019 23:50:00 21.2 C 76 % 16.8 C
2016 28-08-2019 23:55:00 21.1 C 75 % 16.5 C

Legende:
   Min
   Max


Maximal/Minimal-Werte vom 22.08.2019 - 28.08.2019

Sensor Min Max Avg
Temp
(Aussen-T/F)
9.6 °C
22-08-2019  07:05:00
34.3 °C
27-08-2019  17:00:00
20.77 °C
Feuchte
(Aussen-T/F)
30 %
24-08-2019  18:00:00
97 %
27-08-2019  08:30:00
74.62 %
Taupunkt
(Aussen-T/F)
8.62 C
22-08-2019  06:00:00
21.92 C
26-08-2019  18:50:00
15.31 C

Die Daten stammen von einer Davis Vantage Pro 2 Wetter-Station und werden unter Linux mit der Software wview2wettercgi und aufbereitet. Alle Angaben erfolgen ohne Gewähr für ihre Vollständigkeit oder Richtigkeit.
Kontakt: Rainer Krienke krienke@uni-koblenz.de . Meine Webseiten an der Uni Koblenz oder privat.
Version: $Revision: 0.78 $